[{"header": {"dx": 0.06612293990616946, "dy": 0.0552356325346848, "nx": 98, "ny": 59, "la1": 35.046912555036876, "la2": 31.78801023549047, "lo1": -121.43107172385933, "lo2": -114.95102361305473, "refTime": "2026041302", "parameterCategory": 1, "parameterNumber": 2}, "data": [7.01, 6.8, 6.41, 6.41, 5.59, 5.35, 5.35, 5.59, 6.15, 6.95, 6.41, 5.86, 5.82, 4.81, 5.15, 4.84, 4.81, 5.15, 5.37, 5.69, 6.01, 6.87, 6.32, 6.64, 6.53, 7.27, 7.18, 7.08, 7.08, 6.2, 5.63, 5.41, 5.64, 5.06, 4.66, 3.13, 1.6, 0.0, -1.0, -0.8, 0.0, 0.45, 1.26, 2.21, 4.65, 6.82, 8.06, 7.97, 7.9, 8.12, 8.46, 8.46, 9.56, 9.56, 9.9, 9.9, 10.24, 10.63, 10.63, 10.28, 10.66, 10.29, 10.28, 9.3, 8.03, 7.18, 6.45, 7.12, 7.12, 7.63, 8.01, 8.46, 8.85, 9.27, 10.87, 11.75, 12.56, 13.4, 13.49, 11.66, 10.02, 8.8, 7.55, 5.59, 3.55, 2.82, 4.01, 4.13, 4.83, 6.14, 6.95, 7.64, 8.31, 8.6, 8.6, 8.6, 7.9, 6.14, 7.01, 6.8, 6.56, 6.41, 5.59, 5.35, 5.35, 5.93, 6.15, 6.51, 6.41, 6.08, 5.82, 5.09, 5.69, 5.69, 4.11, 4.74, 5.06, 4.95, 6.01, 6.01, 5.72, 6.69, 6.24, 6.24, 6.24, 5.64, 5.52, 4.87, 4.65, 5.48, 4.58, 3.0, 0.71, -0.0, -0.45, -1.34, -0.89, -0.0, -0.0, 0.99, 2.2, 4.36, 6.32, 7.64, 7.9, 7.9, 7.82, 8.12, 8.85, 9.23, 9.62, 9.56, 9.84, 9.9, 10.24, 10.24, 10.63, 10.28, 10.66, 10.28, 9.3, 8.03, 6.42, 6.45, 7.12, 7.9, 7.63, 8.46, 8.53, 8.6, 9.0, 10.28, 10.87, 12.04, 12.37, 13.4, 13.49, 11.66, 10.02, 8.8, 7.55, 5.59, 3.55, 2.82, 4.01, 4.13, 4.83, 6.14, 6.95, 7.64, 8.31, 8.6, 8.6, 8.6, 7.9, 6.14, 7.01, 7.2, 6.56, 6.41, 5.59, 5.35, 5.35, 5.93, 6.15, 6.51, 6.41, 5.49, 5.15, 4.74, 5.43, 5.77, 4.74, 4.11, 4.29, 5.69, 4.95, 5.03, 4.46, 5.46, 6.71, 6.42, 5.76, 4.71, 3.15, 2.49, 3.04, 4.04, 3.91, 2.33, 0.79, -0.0, -0.0, -0.0, 0.57, 0.79, 2.12, 2.82, 4.96, 5.76, 6.53, 7.27, 7.59, 7.9, 8.22, 8.6, 8.93, 9.62, 9.27, 9.62, 9.21, 9.62, 9.9, 10.63, 10.63, 10.66, 10.29, 9.67, 7.97, 6.31, 5.51, 6.33, 7.38, 7.9, 8.76, 8.85, 9.0, 9.04, 9.05, 9.84, 11.09, 12.3, 12.14, 13.01, 12.22, 11.36, 9.54, 8.33, 6.02, 3.22, 2.11, 2.71, 3.53, 3.95, 4.6, 6.53, 7.97, 7.97, 8.65, 8.65, 8.65, 8.65, 7.59, 6.24, 7.51, 7.2, 6.95, 6.41, 5.59, 5.01, 5.35, 5.93, 6.15, 6.41, 6.41, 5.49, 5.15, 4.43, 4.74, 5.06, 5.06, 4.43, 4.01, 4.95, 4.95, 4.47, 4.47, 5.24, 6.53, 6.71, 5.52, 4.0, 1.65, 0.77, 0.82, 1.55, 2.33, 2.32, 3.34, 2.28, 2.21, 3.45, 3.0, 2.31, 3.21, 3.88, 4.83, 5.64, 6.53, 7.27, 7.27, 7.97, 8.31, 8.6, 8.93, 9.27, 9.27, 9.27, 9.23, 9.62, 9.92, 10.28, 10.66, 10.53, 10.28, 7.97, 6.31, 5.51, 6.21, 6.77, 7.63, 8.44, 9.13, 9.53, 9.27, 8.68, 9.03, 9.34, 10.6, 11.84, 11.96, 11.96, 11.96, 10.62, 9.28, 7.55, 4.19, 1.58, 1.52, 2.34, 3.76, 4.6, 5.49, 7.27, 8.68, 8.68, 8.67, 8.67, 8.68, 7.97, 6.24, 5.49, 7.51, 7.31, 6.8, 6.03, 5.35, 5.01, 5.35, 5.59, 6.41, 6.41, 6.41, 5.49, 5.15, 4.54, 4.81, 4.81, 4.74, 4.29, 3.72, 4.16, 4.46, 4.75, 3.68, 4.75, 4.03, 4.66, 5.92, 4.36, 2.28, 0.8, -0.0, -0.0, 0.82, 2.39, 3.39, 4.6, 5.45, 6.3, 4.83, 3.15, 3.36, 4.71, 5.52, 6.31, 6.42, 6.88, 7.59, 7.97, 7.97, 8.65, 8.65, 8.65, 8.6, 8.85, 9.23, 9.62, 9.62, 10.29, 10.9, 10.28, 8.32, 5.9, 4.58, 5.48, 6.31, 7.01, 7.63, 7.9, 8.95, 10.12, 9.56, 9.27, 8.58, 9.6, 10.25, 10.52, 10.7, 10.25, 9.8, 10.26, 8.01, 4.15, 2.35, 0.78, 0.79, 1.56, 3.85, 5.52, 6.95, 7.97, 8.68, 8.67, 8.63, 8.05, 7.69, 7.35, 6.32, 5.59, 7.51, 7.51, 6.8, 5.86, 5.29, 5.01, 5.35, 5.86, 6.41, 6.41, 6.03, 5.49, 5.15, 4.89, 4.19, 4.19, 4.01, 4.01, 3.47, 3.11, 3.55, 4.03, 3.8, 3.8, 3.6, 2.54, 3.52, 3.45, 3.25, 2.28, 0.79, -0.0, 0.83, 1.73, 3.69, 4.6, 6.04, 7.02, 5.69, 2.51, 2.23, 3.25, 5.63, 6.45, 6.97, 6.97, 7.82, 8.27, 7.97, 7.97, 7.97, 8.22, 8.53, 8.53, 9.62, 9.92, 9.92, 10.28, 10.28, 9.3, 6.24, 3.85, 3.87, 5.55, 7.13, 7.69, 7.9, 7.9, 8.37, 9.4, 10.18, 10.24, 9.62, 9.3, 10.15, 9.83, 9.26, 8.46, 8.01, 8.01, 4.85, 1.6, 0.74, 0.81, 1.54, 2.39, 4.6, 6.79, 8.27, 8.65, 8.32, 9.27, 9.2, 8.63, 7.69, 7.02, 6.01, 5.3, 7.51, 7.51, 6.67, 5.86, 5.29, 5.29, 5.29, 5.86, 6.03, 6.03, 6.03, 5.29, 5.15, 4.81, 5.36, 3.48, 4.11, 4.43, 3.72, 3.22, 2.98, 3.22, 3.11, 3.4, 3.35, 3.4, 2.54, 2.33, 3.52, 3.6, 2.54, 0.79, 0.83, 1.72, 3.0, 3.91, 5.49, 7.27, 6.32, 2.35, 1.07, 2.46, 4.6, 5.69, 6.71, 8.12, 9.17, 8.93, 7.9, 7.65, 7.95, 8.12, 8.85, 9.62, 9.66, 10.28, 9.9, 9.84, 9.6, 7.06, 3.21, 2.37, 3.78, 5.45, 7.01, 8.72, 8.56, 8.01, 8.12, 9.56, 10.28, 10.29, 10.15, 10.23, 10.43, 10.25, 9.26, 8.01, 5.59, 4.46, 2.86, 1.6, 1.49, 1.68, 2.28, 3.53, 5.76, 7.59, 8.65, 9.3, 9.7, 10.53, 10.15, 8.67, 8.32, 6.68, 6.06, 5.06, 7.69, 7.01, 6.28, 5.49, 5.29, 5.29, 5.49, 5.86, 6.03, 6.28, 6.13, 4.94, 4.81, 4.43, 5.06, 3.79, 3.79, 4.11, 3.79, 3.35, 3.48, 3.22, 1.98, 1.66, 3.22, 3.22, 2.16, 2.32, 3.68, 3.68, 1.18, -0.0, 1.07, 2.4, 3.0, 3.9, 4.74, 6.11, 6.01, 3.68, 2.26, 2.4, 4.71, 5.72, 6.95, 7.9, 8.27, 8.6, 7.73, 8.61, 7.08, 8.53, 9.23, 9.62, 9.67, 9.65, 9.6, 9.49, 8.0, 4.16, 1.54, 1.6, 3.87, 6.4, 7.82, 8.72, 9.4, 8.93, 8.65, 10.23, 10.68, 10.68, 10.45, 11.06, 11.15, 10.7, 9.8, 6.98, 4.84, 5.37, 6.51, 3.6, 3.7, 3.53, 3.53, 4.87, 6.51, 7.97, 9.05, 9.65, 10.53, 10.79, 9.74, 8.67, 7.69, 7.06, 5.43, 4.74, 7.69, 7.01, 6.28, 5.75, 5.29, 5.29, 5.49, 6.13, 6.28, 6.28, 5.75, 5.21, 5.01, 4.54, 4.43, 4.11, 3.48, 3.48, 4.11, 3.79, 4.11, 4.09, 2.21, 0.99, 2.68, 3.79, 2.48, 2.48, 3.49, 2.32, -0.0, -0.0, 1.23, 2.49, 4.29, 5.21, 5.2, 5.01, 5.59, 4.75, 3.6, 4.71, 5.44, 6.32, 8.0, 8.06, 8.15, 8.22, 7.73, 7.9, 9.8, 8.53, 9.27, 9.3, 9.65, 9.49, 8.82, 7.89, 5.82, 2.35, 0.82, 1.54, 3.11, 5.38, 7.93, 9.31, 10.24, 10.28, 9.9, 10.68, 11.06, 10.28, 10.28, 10.7, 11.15, 10.25, 7.56, 4.46, 4.83, 6.36, 7.63, 6.44, 5.62, 5.09, 4.87, 5.78, 6.95, 9.05, 9.45, 10.27, 10.38, 9.45, 8.8, 8.06, 7.68, 7.06, 5.43, 4.11, 7.26, 7.01, 6.28, 5.75, 4.94, 5.29, 5.75, 5.75, 6.28, 6.28, 5.75, 5.6, 5.08, 4.55, 4.84, 4.54, 4.19, 3.93, 4.65, 4.11, 4.11, 3.79, 2.73, 2.48, 2.73, 4.11, 3.79, 1.55, 2.6, 1.23, -0.0, -0.0, -0.0, 2.48, 5.01, 5.37, 4.8, 3.48, 5.06, 5.69, 4.83, 5.59, 6.32, 7.07, 7.67, 7.69, 7.68, 6.88, 7.44, 8.01, 8.76, 9.48, 9.23, 9.3, 9.05, 8.4, 6.7, 5.09, 2.68, 1.65, 2.34, 2.37, 3.36, 5.67, 7.69, 9.7, 11.28, 10.53, 8.67, 9.39, 9.83, 9.36, 9.15, 9.15, 9.58, 7.56, 4.8, 3.09, 4.87, 7.02, 8.66, 9.37, 7.73, 7.02, 6.44, 6.58, 7.95, 8.88, 9.34, 9.68, 9.18, 8.25, 7.28, 7.69, 8.32, 7.69, 6.44, 4.43, 7.21, 6.6, 6.28, 5.75, 5.21, 5.21, 5.75, 6.1, 6.1, 6.1, 6.1, 6.0, 5.6, 5.08, 5.6, 5.2, 5.2, 4.4, 4.9, 4.9, 5.2, 5.2, 4.54, 4.19, 5.01, 3.79, 3.49, 2.4, 2.4, 2.4, 2.84, 1.0, 1.26, 2.54, 4.38, 5.81, 5.36, 4.74, 5.06, 5.59, 5.59, 6.01, 6.73, 8.0, 8.15, 7.07, 6.32, 5.76, 6.24, 6.88, 7.9, 8.84, 9.22, 8.56, 7.63, 7.08, 4.83, 1.98, -0.0, -0.0, 2.31, 3.91, 4.61, 5.38, 7.93, 10.34, 11.76, 10.24, 6.7, 4.19, 5.6, 6.11, 6.55, 6.54, 5.86, 3.95, 2.72, 4.07, 5.51, 7.12, 8.38, 9.76, 9.76, 8.79, 7.9, 7.31, 7.92, 8.4, 9.18, 8.48, 7.98, 7.03, 7.07, 8.06, 8.67, 8.3, 6.35, 4.36, 6.79, 6.51, 5.89, 5.75, 5.21, 5.21, 6.0, 6.1, 6.1, 6.1, 6.1, 6.0, 5.6, 5.6, 5.31, 5.31, 5.31, 5.31, 5.57, 5.57, 5.57, 5.57, 5.51, 6.64, 6.23, 5.6, 5.36, 3.78, 3.58, 4.24, 3.82, 3.39, 2.54, 3.13, 3.58, 5.09, 5.43, 5.82, 4.95, 5.3, 5.59, 6.39, 6.39, 7.64, 7.44, 4.95, 4.44, 4.66, 4.44, 4.88, 5.72, 7.01, 7.82, 6.97, 6.24, 6.47, 6.79, 4.71, -0.0, -0.84, 1.61, 4.58, 6.17, 6.2, 6.52, 8.62, 11.16, 11.28, 6.21, -0.0, -1.49, 0.85, 3.95, 4.38, 3.13, 2.29, 3.11, 5.51, 7.93, 8.44, 8.01, 9.1, 10.12, 9.48, 8.53, 7.96, 7.92, 7.73, 8.48, 7.56, 7.98, 7.85, 7.92, 8.05, 8.24, 8.24, 6.44, 5.06, 6.79, 6.51, 6.0, 5.21, 5.21, 5.47, 6.0, 6.1, 6.3, 6.3, 6.23, 5.6, 5.6, 5.6, 5.6, 5.6, 5.4, 5.4, 5.99, 6.04, 6.47, 6.3, 6.3, 6.47, 5.88, 5.4, 5.31, 4.8, 4.19, 3.98, 3.95, 3.6, 3.6, 3.6, 4.15, 4.22, 4.84, 4.74, 4.36, 4.95, 5.37, 5.37, 5.77, 5.43, 4.74, 3.2, 3.3, 3.3, 3.52, 3.52, 4.4, 5.0, 4.39, 4.38, 5.3, 5.67, 7.88, 9.49, 3.79, -0.0, 0.78, 4.76, 6.2, 5.8, 4.71, 6.42, 8.28, 9.8, 9.87, 6.9, -0.0, -2.98, 0.0, 1.0, 2.47, 3.78, 5.4, 7.93, 10.01, 10.12, 9.2, 9.27, 10.19, 10.91, 9.56, 9.0, 8.05, 7.47, 7.06, 7.06, 7.6, 7.85, 7.92, 7.67, 8.55, 8.05, 6.44, 5.59, 6.79, 6.1, 6.0, 5.47, 5.47, 5.6, 6.0, 6.3, 6.3, 6.3, 5.81, 5.81, 5.81, 5.6, 5.6, 5.6, 5.81, 5.81, 6.04, 6.47, 6.79, 6.6, 7.01, 7.01, 6.6, 6.0, 5.08, 4.8, 4.4, 3.88, 3.43, 3.35, 5.01, 4.19, 4.19, 4.11, 3.72, 3.64, 4.01, 4.01, 4.74, 5.09, 5.59, 5.69, 4.71, 3.52, 3.27, 3.52, 3.35, 3.35, 3.35, 3.35, 2.33, 3.52, 4.66, 5.13, 6.98, 10.43, 8.66, 1.54, 0.8, 4.43, 5.36, 4.43, 4.0, 3.83, 4.35, 5.13, 9.4, 13.0, 11.19, 2.53, -2.54, -0.0, 3.11, 6.1, 7.13, 9.49, 11.76, 11.82, 10.24, 9.92, 10.65, 11.2, 10.45, 10.29, 8.67, 6.64, 6.25, 6.32, 6.9, 6.9, 8.24, 8.95, 9.18, 8.24, 6.7, 5.59, 6.79, 6.3, 5.6, 5.6, 5.47, 5.6, 5.81, 6.3, 6.3, 6.3, 5.81, 5.81, 5.81, 5.81, 5.81, 5.81, 5.88, 6.47, 6.47, 6.79, 6.6, 7.01, 7.31, 6.8, 6.67, 5.86, 4.94, 4.65, 4.07, 3.49, 3.49, 3.47, 4.75, 5.06, 5.06, 4.75, 4.46, 3.64, 5.03, 4.81, 4.74, 5.69, 5.69, 6.01, 4.71, 4.71, 3.35, 3.35, 3.35, 3.4, 4.46, 3.4, 3.45, 3.49, 3.49, 3.76, 5.37, 7.9, 8.66, 4.65, 2.34, 4.32, 4.48, 3.29, 4.58, 3.25, 3.42, 5.67, 8.2, 12.64, 15.95, 11.9, 2.41, -0.0, 3.29, 7.93, 9.6, 11.14, 12.49, 13.15, 11.9, 11.2, 10.38, 10.1, 8.97, 10.15, 8.67, 6.7, 6.68, 7.02, 6.7, 6.9, 7.85, 9.34, 9.08, 6.08, 5.3, 5.3, 6.51, 6.3, 5.81, 5.81, 5.81, 5.81, 5.81, 6.3, 6.3, 6.04, 5.99, 5.99, 5.99, 5.81, 5.88, 6.3, 6.47, 6.51, 6.94, 6.79, 7.01, 7.31, 7.2, 6.56, 6.15, 5.59, 4.45, 4.12, 3.72, 3.45, 3.42, 4.08, 3.84, 5.03, 4.75, 3.64, 3.9, 3.9, 4.75, 5.37, 4.74, 5.06, 6.01, 5.44, 5.44, 4.46, 4.46, 3.6, 4.46, 5.03, 5.03, 5.37, 5.59, 5.01, 3.48, 3.48, 3.76, 5.44, 6.44, 6.44, 4.83, 5.45, 4.6, 4.36, 3.39, 3.21, 4.01, 5.86, 7.95, 11.38, 14.82, 14.65, 7.18, 1.54, 3.91, 8.46, 11.14, 12.52, 13.49, 12.86, 12.47, 11.2, 9.49, 8.4, 7.71, 6.94, 7.67, 7.02, 7.97, 7.97, 7.69, 8.14, 8.93, 8.67, 7.85, 5.09, 5.37, 5.37, 6.47, 6.3, 5.81, 5.81, 5.81, 5.81, 5.99, 6.47, 6.47, 6.04, 6.04, 5.99, 5.99, 5.99, 6.04, 6.47, 6.51, 6.94, 6.94, 7.21, 7.09, 7.51, 6.56, 6.15, 5.65, 5.37, 4.75, 4.08, 3.83, 3.6, 3.6, 3.6, 3.6, 4.44, 3.55, 3.79, 3.33, 3.45, 4.74, 5.06, 4.75, 4.74, 6.01, 4.74, 6.01, 5.69, 5.03, 5.03, 5.03, 5.93, 5.93, 6.8, 7.6, 7.07, 5.93, 4.74, 4.43, 5.01, 6.8, 7.76, 7.64, 6.87, 5.44, 4.71, 3.35, 2.31, 3.3, 4.6, 7.69, 12.24, 16.87, 14.88, 8.12, 3.16, 5.51, 9.4, 12.49, 14.13, 13.49, 12.23, 11.26, 9.3, 8.05, 7.2, 6.44, 6.08, 6.08, 7.35, 8.65, 9.05, 8.4, 8.25, 8.25, 7.73, 6.08, 5.06, 5.37, 5.37, 6.47, 6.47, 6.3, 5.81, 5.81, 5.99, 6.04, 6.04, 6.47, 6.47, 6.47, 6.04, 6.16, 6.16, 6.04, 6.47, 6.94, 6.94, 7.4, 7.26, 7.51, 7.01, 6.41, 5.65, 5.08, 4.75, 4.08, 4.28, 4.03, 4.0, 3.35, 3.56, 3.6, 4.32, 4.73, 4.83, 3.9, 4.47, 5.06, 4.74, 5.06, 4.43, 4.43, 4.43, 5.69, 6.01, 5.69, 5.69, 5.93, 6.28, 7.2, 6.8, 6.8, 6.7, 5.93, 5.06, 5.01, 5.2, 5.6, 6.13, 7.07, 6.87, 5.44, 4.46, 3.4, 1.63, 2.4, 3.8, 6.98, 12.07, 17.58, 16.55, 10.9, 6.31, 7.27, 9.3, 12.47, 14.07, 13.83, 11.44, 9.84, 8.67, 7.67, 6.35, 6.39, 6.32, 6.06, 8.03, 8.68, 9.65, 9.65, 8.14, 7.06, 6.32, 5.37, 5.37, 6.32, 6.32, 6.47, 6.47, 6.47, 5.88, 5.88, 6.04, 6.04, 6.04, 6.47, 6.47, 6.51, 6.61, 6.61, 6.6, 6.47, 7.42, 6.51, 6.94, 7.26, 7.26, 7.21, 6.28, 5.93, 5.69, 5.69, 5.03, 4.08, 4.83, 4.5, 4.2, 4.0, 4.03, 4.05, 4.05, 4.46, 4.47, 4.75, 5.06, 5.77, 5.93, 5.82, 5.82, 6.13, 6.7, 7.07, 6.7, 6.28, 6.28, 5.93, 6.32, 7.2, 7.2, 7.2, 6.32, 5.93, 5.59, 4.43, 4.74, 5.06, 5.93, 7.07, 6.87, 6.32, 4.16, 3.2, 2.51, 3.09, 4.95, 7.03, 11.4, 14.81, 15.36, 13.83, 10.87, 10.01, 9.72, 11.15, 12.87, 13.49, 12.14, 8.55, 7.89, 7.03, 7.32, 7.06, 7.07, 7.03, 8.14, 9.2, 9.86, 10.15, 9.49, 6.4, 5.09, 5.3, 6.32, 6.68, 6.68, 6.61, 6.47, 6.47, 6.47, 6.3, 6.47, 6.47, 6.47, 6.51, 6.94, 6.94, 7.07, 7.06, 7.06, 6.61, 7.06, 6.94, 6.94, 7.71, 7.71, 7.63, 6.28, 6.15, 6.79, 6.06, 5.69, 5.49, 4.69, 4.44, 4.66, 4.0, 4.03, 4.05, 4.05, 4.08, 4.73, 5.1, 5.38, 5.65, 6.15, 6.79, 6.95, 6.95, 6.95, 6.41, 7.07, 5.93, 5.93, 5.93, 6.8, 7.2, 6.7, 6.7, 6.28, 4.46, 4.11, 4.75, 4.01, 4.74, 6.28, 6.28, 5.69, 5.69, 4.46, 3.27, 3.09, 4.26, 6.44, 8.4, 10.62, 13.65, 15.31, 14.11, 13.39, 12.94, 11.18, 10.15, 10.55, 10.7, 10.25, 10.01, 9.33, 8.14, 7.89, 8.14, 8.25, 8.91, 9.4, 8.91, 8.97, 9.75, 9.49, 7.07, 5.69, 6.32, 7.64, 8.68, 8.68, 6.61, 6.47, 6.47, 6.47, 6.47, 6.47, 6.47, 6.51, 6.94, 7.4, 7.51, 7.51, 7.51, 7.51, 7.07, 7.07, 7.51, 7.51, 7.51, 8.33, 8.14, 6.8, 6.95, 6.7, 7.07, 6.79, 6.32, 5.09, 4.69, 4.69, 4.03, 4.28, 4.05, 4.05, 4.05, 4.73, 5.1, 5.69, 5.98, 6.23, 6.51, 6.7, 7.07, 7.07, 6.51, 7.07, 5.93, 5.93, 6.52, 6.8, 6.8, 5.93, 6.28, 5.69, 5.69, 4.81, 5.06, 4.74, 5.93, 5.59, 5.93, 5.93, 4.75, 3.6, 3.09, 4.03, 5.37, 7.06, 9.03, 10.43, 12.8, 14.92, 12.96, 9.84, 10.23, 9.9, 7.94, 7.69, 7.89, 9.54, 11.09, 11.5, 9.49, 7.98, 8.82, 8.14, 8.19, 8.67, 8.38, 8.38, 8.19, 8.55, 8.32, 7.61, 7.96, 8.59, 9.78, 9.78, 6.61, 6.6, 6.47, 6.47, 6.47, 6.51, 6.94, 6.94, 7.4, 7.84, 7.87, 7.87, 7.97, 7.97, 7.51, 7.51, 7.51, 7.97, 7.97, 7.87, 8.17, 8.0, 7.71, 7.48, 7.23, 7.15, 6.92, 5.72, 5.08, 4.69, 4.45, 4.03, 4.05, 4.05, 4.05, 4.73, 5.1, 5.69, 5.69, 6.23, 6.23, 7.07, 7.07, 7.07, 6.51, 5.93, 6.7, 6.52, 6.52, 5.93, 5.93, 6.28, 5.69, 6.01, 6.01, 6.01, 5.69, 5.69, 6.13, 4.65, 4.19, 4.81, 3.9, 4.03, 4.26, 4.83, 5.69, 6.39, 6.53, 7.65, 10.02, 14.33, 9.92, 0.81, 2.6, 4.46, 4.75, 5.09, 6.66, 8.38, 11.45, 12.92, 11.88, 10.01, 8.4, 7.28, 6.98, 6.98, 7.28, 7.01, 6.13, 7.32, 8.94, 9.21, 9.19, 9.19, 10.23, 10.23, 6.61, 6.61, 6.61, 6.47, 6.51, 6.94, 6.94, 7.4, 7.84, 7.87, 8.3, 8.3, 8.3, 7.87, 7.97, 7.52, 7.52, 7.97, 8.3, 8.3, 8.17, 8.0, 7.71, 7.48, 7.07, 7.15, 6.92, 6.06, 5.32, 4.66, 4.44, 4.69, 4.03, 4.03, 4.05, 4.73, 5.1, 5.69, 5.98, 6.23, 6.23, 6.51, 6.7, 6.51, 6.23, 6.23, 7.07, 6.52, 6.52, 5.93, 6.28, 6.28, 5.69, 5.69, 5.69, 5.69, 5.37, 5.59, 5.59, 3.2, 2.98, 3.22, 4.26, 3.91, 4.83, 5.3, 5.69, 4.95, 4.71, 5.64, 7.24, 12.33, 5.09, -5.36, -1.9, 3.51, 5.81, 6.66, 7.12, 8.49, 10.7, 12.74, 13.05, 11.66, 10.02, 7.71, 6.79, 6.94, 7.6, 7.03, 5.69, 7.61, 9.21, 10.41, 10.15, 10.09, 10.13, 10.13, 6.68, 6.68, 6.61, 6.61, 6.94, 6.97, 7.4, 7.4, 7.87, 8.17, 8.17, 8.17, 8.21, 8.64, 8.33, 8.41, 7.97, 7.87, 8.3, 8.64, 8.48, 8.22, 8.0, 7.23, 7.07, 6.79, 6.87, 6.34, 5.08, 4.66, 4.66, 4.44, 4.69, 4.45, 4.46, 4.73, 5.38, 5.69, 5.98, 6.23, 6.51, 6.51, 6.51, 6.51, 6.23, 5.93, 7.44, 7.07, 6.7, 7.07, 6.52, 6.7, 6.7, 5.93, 5.93, 5.37, 4.74, 5.69, 7.07, 4.46, 1.74, 1.7, 3.4, 5.1, 5.59, 5.59, 5.1, 5.2, 4.03, 4.95, 6.44, 19.39, 17.22, 6.02, 3.2, 8.17, 11.57, 11.18, 10.22, 9.11, 9.89, 11.54, 12.52, 12.07, 10.16, 8.19, 7.89, 7.6, 8.05, 7.68, 6.44, 7.59, 10.35, 11.6, 11.06, 10.79, 10.6, 10.6, 7.13, 7.13, 7.06, 7.06, 7.06, 6.97, 7.4, 7.87, 7.87, 8.17, 8.17, 8.17, 8.64, 8.64, 9.11, 8.77, 8.3, 7.87, 8.17, 8.42, 8.3, 8.51, 8.15, 7.61, 7.15, 6.79, 6.62, 5.72, 5.34, 4.66, 4.66, 4.44, 4.69, 4.71, 4.71, 5.1, 5.38, 5.98, 5.98, 5.98, 6.51, 6.15, 5.93, 5.93, 5.93, 6.15, 6.79, 6.95, 6.79, 6.41, 6.41, 7.37, 6.8, 6.52, 5.59, 5.06, 5.06, 4.81, 6.28, 5.37, 3.49, 2.4, 3.47, 4.95, 5.59, 4.71, 4.96, 5.49, 6.01, 7.42, 10.25, 14.4, 19.43, 14.49, 10.23, 9.83, 11.99, 11.06, 9.8, 7.69, 8.55, 10.0, 10.8, 10.26, 10.16, 9.08, 8.63, 8.05, 7.69, 8.59, 9.92, 9.14, 10.94, 12.04, 11.3, 10.6, 9.89, 9.89, 7.13, 7.13, 7.13, 7.06, 7.07, 7.51, 7.4, 7.87, 7.87, 7.74, 8.17, 8.17, 8.64, 9.11, 9.11, 9.11, 8.77, 8.3, 7.74, 8.0, 8.22, 8.4, 8.15, 7.72, 7.15, 6.52, 5.71, 5.36, 4.69, 4.44, 4.44, 4.69, 4.69, 5.1, 5.38, 5.1, 5.38, 5.69, 5.98, 5.98, 6.23, 5.93, 5.93, 5.65, 5.93, 6.15, 6.95, 6.95, 6.79, 6.41, 6.95, 6.67, 7.07, 6.7, 5.93, 5.59, 6.13, 5.36, 4.74, 5.03, 5.44, 5.03, 4.43, 4.29, 4.03, 4.96, 4.96, 5.49, 7.44, 8.3, 9.54, 12.51, 14.54, 17.11, 14.76, 12.89, 12.79, 9.15, 1.88, 1.52, 4.03, 5.72, 6.36, 7.12, 7.85, 9.65, 9.84, 8.67, 8.06, 9.19, 10.9, 10.73, 11.47, 11.3, 11.03, 9.83, 9.46, 9.46, 7.13, 7.13, 7.13, 7.13, 7.51, 7.51, 7.97, 7.97, 7.87, 7.87, 7.74, 8.17, 8.64, 9.11, 9.54, 9.54, 8.67, 8.17, 7.74, 8.0, 7.81, 8.0, 8.15, 7.72, 7.35, 6.28, 5.71, 5.1, 4.69, 4.44, 4.69, 4.71, 5.1, 5.38, 5.38, 5.38, 5.38, 5.71, 5.69, 5.69, 5.98, 5.98, 5.65, 5.93, 6.15, 6.51, 6.95, 6.41, 6.41, 6.03, 6.67, 6.67, 6.8, 6.41, 6.08, 5.82, 6.52, 5.75, 4.19, 4.29, 6.87, 6.73, 5.69, 3.79, 4.44, 3.91, 4.83, 6.79, 8.05, 9.2, 10.01, 11.18, 12.14, 12.89, 12.72, 12.87, 15.05, 13.33, 5.43, -0.61, -0.76, 1.4, 3.13, 5.6, 7.54, 10.09, 11.44, 10.87, 9.65, 10.23, 10.94, 12.4, 12.29, 11.45, 10.6, 10.18, 10.32, 10.32, 7.6, 7.6, 7.58, 7.58, 7.51, 7.97, 7.97, 7.97, 7.87, 7.69, 7.74, 8.17, 8.64, 9.11, 9.54, 9.57, 9.11, 8.64, 7.74, 7.51, 7.71, 7.48, 7.61, 7.35, 7.35, 6.28, 5.71, 4.71, 4.45, 4.45, 4.71, 4.46, 4.73, 4.73, 5.1, 5.38, 5.38, 5.71, 5.69, 5.69, 5.98, 6.23, 5.98, 5.93, 6.41, 6.41, 6.56, 6.56, 6.67, 6.28, 6.28, 6.67, 6.41, 6.51, 6.51, 6.44, 6.7, 6.13, 4.43, 5.06, 6.44, 7.06, 5.59, 4.71, 4.12, 5.72, 6.44, 6.4, 7.21, 9.33, 10.75, 11.06, 9.7, 7.89, 8.65, 12.87, 15.37, 17.36, 16.11, 7.71, 0.54, 2.8, 6.16, 8.67, 10.27, 11.72, 12.13, 12.39, 11.75, 11.09, 10.95, 11.45, 13.07, 11.8, 11.3, 11.09, 10.8, 10.8, 7.6, 7.6, 7.58, 7.58, 7.97, 7.97, 8.41, 7.97, 7.87, 7.84, 7.74, 8.17, 8.64, 9.11, 9.54, 9.57, 9.54, 8.64, 8.17, 7.69, 7.51, 7.71, 7.48, 7.23, 7.35, 7.15, 6.32, 5.1, 4.05, 4.46, 4.46, 4.73, 4.73, 4.73, 4.73, 5.1, 5.1, 5.69, 5.69, 5.98, 5.98, 6.23, 5.93, 6.44, 6.08, 6.41, 6.67, 6.28, 6.28, 6.28, 6.28, 6.41, 6.15, 6.51, 7.07, 6.51, 7.76, 7.07, 5.06, 5.77, 6.44, 6.39, 5.59, 4.96, 5.1, 6.39, 7.07, 6.7, 6.26, 7.6, 10.25, 11.36, 9.26, 5.36, 5.36, 10.7, 12.87, 14.3, 18.05, 18.23, 12.14, 9.21, 10.12, 11.81, 12.22, 12.72, 12.3, 12.87, 13.29, 12.58, 11.66, 11.66, 12.66, 12.3, 12.01, 11.75, 10.8, 10.8, 7.6, 7.6, 7.58, 8.03, 7.97, 8.41, 8.3, 7.87, 7.87, 7.69, 7.87, 8.3, 8.64, 8.67, 9.11, 9.54, 9.39, 9.11, 8.17, 7.74, 7.51, 7.31, 7.31, 7.71, 7.87, 7.35, 6.32, 5.1, 4.05, 4.46, 4.73, 4.73, 4.73, 4.73, 4.73, 5.1, 5.38, 5.38, 5.65, 5.65, 5.93, 6.15, 5.93, 5.93, 6.15, 6.44, 6.82, 6.03, 6.41, 6.15, 6.15, 6.51, 6.51, 6.51, 7.07, 7.07, 7.07, 6.51, 6.44, 5.77, 6.08, 6.06, 5.59, 5.3, 5.69, 6.01, 7.35, 8.15, 5.75, 5.31, 6.65, 9.2, 11.6, 8.36, 4.81, 6.4, 9.39, 10.62, 13.29, 18.16, 18.32, 14.73, 13.71, 14.22, 15.44, 15.34, 14.79, 14.59, 14.68, 14.15, 13.25, 13.32, 13.69, 13.49, 13.09, 12.22, 11.42, 11.42, 8.03, 8.03, 8.03, 7.97, 7.97, 8.3, 8.3, 7.87, 7.87, 7.84, 7.87, 7.87, 8.64, 8.64, 9.11, 9.11, 9.39, 8.96, 8.48, 8.0, 7.51, 7.93, 7.51, 7.81, 8.0, 7.72, 6.92, 5.1, 4.08, 4.08, 4.73, 4.46, 4.73, 4.73, 5.1, 5.08, 5.08, 5.37, 5.65, 5.93, 5.93, 6.15, 5.93, 5.93, 6.41, 6.82, 7.42, 6.41, 6.51, 6.51, 6.51, 6.51, 6.15, 6.51, 6.51, 6.51, 6.51, 6.51, 6.15, 6.08, 6.08, 6.44, 6.39, 5.77, 5.06, 4.74, 5.69, 7.81, 7.44, 5.2, 3.58, 6.44, 11.88, 14.42, 8.46, 4.11, 5.75, 8.94, 11.15, 15.01, 16.68, 15.2, 14.01, 15.59, 17.76, 19.14, 18.28, 15.96, 14.29, 13.39, 12.94, 12.94, 13.39, 13.34, 13.7, 13.25, 11.89, 11.89, 8.03, 8.03, 7.97, 7.97, 7.97, 7.87, 7.87, 7.87, 7.84, 7.87, 7.87, 7.87, 8.3, 8.64, 8.64, 9.11, 8.96, 9.39, 8.96, 8.72, 8.3, 8.22, 7.81, 8.22, 7.76, 7.44, 6.64, 5.1, 4.96, 4.08, 4.73, 4.46, 4.73, 5.1, 5.1, 5.38, 5.08, 5.37, 5.65, 5.93, 5.93, 5.93, 5.86, 5.86, 6.03, 6.67, 6.56, 6.95, 6.95, 6.79, 6.41, 6.41, 6.41, 6.41, 6.23, 6.15, 6.41, 6.41, 6.41, 6.41, 6.44, 6.44, 6.18, 5.09, 5.15, 4.84, 4.19, 5.93, 8.0, 8.15, 5.82, 6.28, 10.18, 15.04, 11.4, 5.09, 3.83, 7.15, 11.15, 13.78, 15.22, 14.35, 13.6, 14.94, 17.93, 19.95, 19.65, 17.18, 13.84, 11.62, 11.18, 11.62, 12.05, 12.88, 13.78, 13.25, 12.35, 12.35, 8.03, 8.03, 7.97, 7.97, 7.97, 7.97, 7.87, 7.87, 7.87, 7.97, 7.97, 7.87, 7.87, 8.3, 8.64, 8.64, 8.96, 9.21, 9.01, 9.01, 8.51, 8.51, 8.0, 7.76, 7.72, 7.44, 6.32, 5.44, 4.46, 4.96, 4.46, 4.71, 5.1, 5.1, 5.1, 5.1, 5.38, 5.37, 5.65, 5.93, 5.93, 5.59, 5.86, 6.03, 6.03, 6.67, 6.67, 6.67, 6.41, 6.41, 6.41, 6.41, 6.03, 5.86, 5.86, 5.86, 5.86, 6.03, 6.03, 6.41, 6.41, 5.82, 6.28, 5.15, 5.46, 5.21, 4.8, 4.8, 6.8, 8.8, 8.55, 8.01, 9.39, 13.86, 15.34, 8.46, 4.47, 6.65, 10.19, 13.78, 14.49, 14.31, 13.4, 14.03, 15.82, 18.08, 18.52, 17.16, 13.77, 9.81, 9.8, 10.18, 10.98, 12.33, 13.12, 13.21, 12.66, 12.66, 7.97, 7.97, 7.97, 7.97, 7.97, 7.97, 7.51, 7.51, 7.52, 7.97, 7.52, 7.4, 7.87, 7.87, 8.21, 8.64, 8.48, 8.72, 9.01, 9.2, 8.68, 8.68, 8.15, 7.9, 7.44, 7.21, 6.32, 5.71, 4.71, 4.71, 5.1, 5.1, 5.38, 5.1, 5.1, 5.38, 5.69, 5.37, 5.65, 5.93, 5.93, 5.86, 5.86, 6.03, 6.28, 6.28, 6.28, 6.28, 6.28, 6.28, 6.13, 6.13, 5.86, 5.86, 5.86, 5.86, 6.23, 6.15, 6.41, 6.41, 7.44, 6.28, 5.93, 5.93, 4.81, 4.81, 5.15, 5.43, 6.79, 8.63, 8.95, 9.54, 9.39, 10.7, 13.21, 11.37, 8.14, 8.45, 11.15, 13.79, 14.6, 14.15, 13.34, 12.89, 13.78, 15.54, 16.72, 16.26, 13.09, 8.82, 6.55, 9.26, 10.52, 11.89, 12.79, 13.56, 13.09, 13.09, 7.97, 7.97, 7.97, 7.97, 7.97, 7.51, 7.51, 7.51, 7.52, 7.52, 7.51, 7.4, 7.4, 7.87, 7.74, 8.48, 8.48, 8.72, 8.51, 8.68, 8.96, 8.43, 8.27, 7.9, 7.44, 7.21, 6.32, 5.38, 4.71, 5.1, 5.1, 5.38, 5.1, 5.1, 5.38, 5.69, 5.69, 5.65, 5.65, 5.93, 5.86, 5.86, 6.03, 6.28, 6.28, 6.28, 6.28, 6.28, 6.28, 5.75, 5.75, 6.13, 5.86, 5.86, 5.59, 5.93, 5.93, 6.15, 6.15, 6.51, 6.23, 7.07, 5.93, 5.93, 5.59, 6.13, 5.43, 6.0, 6.79, 8.63, 9.18, 10.21, 10.18, 10.25, 10.6, 10.15, 10.55, 10.02, 11.52, 12.94, 12.89, 12.88, 12.44, 11.99, 12.88, 14.11, 15.36, 14.0, 11.4, 8.82, 6.55, 6.66, 10.25, 11.6, 12.5, 12.94, 13.25, 13.25, 7.97, 7.97, 7.97, 7.97, 7.52, 7.51, 7.51, 7.51, 7.51, 7.51, 7.51, 6.97, 7.4, 7.4, 7.74, 8.17, 8.48, 8.72, 8.51, 8.68, 8.82, 8.55, 8.37, 8.0, 7.44, 6.92, 6.32, 5.71, 5.1, 5.1, 5.1, 5.1, 5.1, 5.38, 5.08, 5.65, 5.65, 5.93, 5.59, 5.86, 5.86, 6.28, 6.13, 5.75, 5.75, 6.28, 6.28, 6.28, 5.89, 5.75, 5.75, 5.49, 5.65, 5.35, 5.93, 5.93, 6.15, 6.15, 6.15, 6.41, 6.41, 5.86, 6.7, 5.46, 5.82, 6.4, 5.75, 6.07, 6.65, 7.42, 8.79, 9.2, 12.62, 11.66, 9.7, 8.4, 10.23, 11.75, 11.66, 10.98, 11.28, 11.28, 11.71, 11.75, 12.01, 13.4, 14.27, 13.23, 11.52, 9.36, 7.15, 6.71, 9.39, 11.18, 12.07, 12.52, 12.94, 12.94, 8.03, 8.03, 8.03, 7.97, 7.51, 7.51, 7.58, 7.51, 7.51, 7.07, 6.94, 6.97, 6.97, 7.4, 7.74, 8.48, 8.72, 8.72, 8.0, 8.15, 8.43, 8.55, 8.29, 8.08, 7.51, 6.92, 6.32, 5.71, 5.1, 5.08, 5.08, 5.08, 5.08, 5.37, 5.65, 5.65, 5.93, 5.86, 5.86, 6.13, 5.75, 5.75, 5.75, 6.4, 6.0, 6.0, 6.51, 6.51, 5.75, 5.75, 5.29, 5.29, 5.35, 5.59, 5.93, 5.93, 6.15, 6.15, 6.41, 6.41, 6.41, 5.86, 6.7, 5.82, 5.82, 7.21, 6.02, 6.02, 6.02, 6.28, 7.03, 8.67, 12.17, 13.62, 9.33, 7.55, 8.36, 11.66, 12.58, 10.6, 10.0, 11.3, 12.79, 13.18, 13.42, 14.61, 15.69, 14.9, 12.87, 10.73, 8.49, 6.66, 7.56, 10.25, 11.06, 11.53, 11.99, 12.52, 8.03, 8.03, 8.03, 7.58, 7.58, 7.58, 7.58, 7.07, 7.06, 7.06, 7.06, 7.06, 6.94, 7.26, 8.0, 8.3, 8.72, 9.01, 8.51, 8.0, 8.15, 8.0, 8.08, 8.08, 7.51, 6.92, 6.32, 5.71, 5.69, 5.08, 5.06, 5.06, 5.37, 5.65, 5.93, 5.93, 5.86, 5.86, 5.86, 5.75, 5.75, 5.75, 5.75, 6.4, 5.75, 6.0, 6.1, 6.1, 5.75, 5.75, 5.29, 5.29, 5.35, 5.59, 5.59, 6.23, 6.41, 6.41, 6.41, 6.41, 6.41, 5.86, 6.7, 5.43, 6.16, 6.79, 6.79, 5.43, 5.82, 5.82, 6.08, 7.64, 11.2, 14.3, 14.17, 8.9, 5.75, 8.46, 10.63, 8.93, 8.55, 11.3, 14.39, 15.2, 15.54, 16.68, 17.35, 16.56, 14.57, 12.05, 9.39, 6.22, 6.07, 9.26, 10.62, 10.98, 11.28, 11.99, 8.03, 8.03, 8.03, 8.03, 7.58, 7.58, 7.13, 7.06, 7.06, 7.06, 7.06, 7.06, 6.94, 7.26, 8.0, 8.3, 8.91, 9.42, 8.91, 8.0, 7.61, 7.35, 7.64, 8.08, 7.85, 7.51, 6.92, 6.32, 6.28, 5.98, 5.65, 5.35, 5.35, 5.59, 5.59, 5.59, 5.86, 5.86, 5.86, 5.86, 5.75, 5.75, 5.75, 5.37, 6.4, 5.75, 6.0, 5.75, 6.13, 5.49, 5.29, 5.29, 5.29, 5.86, 5.86, 5.86, 6.03, 6.41, 6.41, 6.41, 6.03, 5.86, 5.75, 6.4, 6.13, 6.13, 5.21, 5.43, 5.82, 6.44, 6.44, 7.42, 9.8, 12.17, 14.96, 10.15, 5.75, 3.84, 5.36, 7.28, 9.14, 12.13, 15.04, 15.96, 16.25, 17.17, 17.82, 17.47, 15.49, 13.77, 10.73, 8.01, 6.98, 9.06, 10.45, 10.75, 10.6, 11.28, 8.03, 8.03, 8.03, 8.03, 7.58, 7.58, 7.06, 6.61, 7.06, 7.07, 7.06, 6.94, 7.26, 7.69, 8.0, 8.22, 8.51, 9.01, 9.2, 8.15, 7.61, 7.07, 7.35, 7.44, 7.51, 7.51, 6.92, 6.92, 6.62, 6.28, 5.65, 5.35, 5.59, 5.59, 5.59, 5.59, 5.59, 5.59, 5.86, 5.86, 5.86, 5.75, 5.6, 5.6, 5.6, 6.8, 5.89, 5.75, 5.86, 5.86, 5.29, 5.29, 5.29, 5.49, 5.86, 5.86, 5.86, 6.03, 6.03, 6.28, 6.28, 6.13, 7.2, 6.13, 5.75, 6.13, 5.2, 6.13, 5.82, 6.44, 6.44, 7.03, 9.21, 10.62, 12.56, 13.76, 9.65, 4.41, 3.04, 7.44, 10.73, 13.74, 15.27, 15.76, 16.44, 16.6, 16.74, 16.39, 15.58, 13.84, 11.62, 8.91, 7.45, 8.82, 9.9, 10.01, 10.43, 10.43, 8.03, 8.03, 8.03, 8.03, 7.58, 7.07, 7.06, 7.06, 6.97, 7.4, 7.26, 7.51, 7.51, 7.51, 8.0, 8.22, 8.3, 8.51, 8.68, 8.43, 8.15, 7.23, 6.79, 6.87, 7.21, 6.92, 6.92, 6.92, 6.59, 6.28, 6.23, 5.65, 5.59, 5.59, 5.59, 5.59, 5.59, 5.59, 5.86, 5.86, 6.13, 5.75, 5.6, 5.6, 5.6, 6.1, 6.1, 5.75, 5.49, 5.49, 5.29, 5.29, 5.49, 5.75, 5.75, 6.13, 6.28, 6.28, 6.28, 6.28, 6.28, 6.28, 6.0, 6.13, 5.75, 5.75, 6.13, 5.75, 5.21, 5.82, 6.44, 7.35, 9.21, 9.49, 10.04, 12.65, 14.76, 12.89, 7.69, 7.69, 11.3, 14.39, 15.72, 16.04, 16.25, 16.53, 15.49, 15.18, 14.75, 13.41, 11.18, 9.81, 8.63, 8.95, 9.6, 9.2, 9.2, 9.2, 8.05, 8.05, 8.05, 8.03, 7.58, 7.07, 7.06, 7.06, 6.94, 7.09, 7.71, 8.0, 8.0, 8.0, 8.0, 8.22, 8.22, 8.0, 8.51, 8.27, 7.9, 7.35, 7.15, 6.87, 6.87, 6.92, 6.92, 6.92, 6.87, 6.87, 6.57, 6.23, 5.93, 5.59, 5.59, 5.59, 5.59, 5.86, 5.86, 6.13, 6.13, 5.75, 6.0, 5.6, 5.81, 6.23, 6.0, 5.75, 5.58, 5.29, 5.29, 5.29, 5.75, 5.75, 5.75, 5.75, 6.13, 6.28, 6.28, 6.28, 6.28, 6.28, 5.75, 6.8, 5.75, 5.75, 6.13, 6.13, 5.15, 5.82, 6.8, 7.21, 7.89, 9.03, 9.65, 10.9, 14.51, 15.75, 12.26, 9.0, 10.55, 14.1, 16.13, 16.81, 16.65, 16.68, 15.81, 14.73, 13.41, 11.6, 9.81, 8.82, 7.98, 8.06, 8.06, 7.69, 7.69, 7.69, 8.49, 8.49, 8.05, 8.05, 7.58, 7.13, 7.13, 7.06, 6.94, 7.51, 7.87, 8.15, 8.27, 8.43, 8.28, 8.28, 8.28, 8.15, 8.15, 7.9, 7.72, 7.44, 6.87, 6.87, 6.87, 6.59, 6.92, 7.21, 6.87, 6.87, 6.79, 6.23, 6.15, 5.59, 5.59, 5.86, 5.86, 5.86, 5.75, 5.75, 5.75, 6.0, 6.0, 5.6, 5.6, 5.6, 5.6, 5.21, 5.21, 5.21, 5.21, 5.21, 5.75, 5.75, 5.75, 5.75, 5.75, 5.75, 5.75, 6.28, 6.1, 6.0, 6.0, 5.6, 6.8, 6.13, 6.13, 5.21, 5.46, 5.82, 7.21, 6.4, 7.03, 8.43, 9.05, 10.23, 12.23, 14.07, 12.87, 10.18, 10.9, 13.02, 15.14, 16.09, 16.53, 17.16, 17.78, 15.49, 12.07, 8.91, 9.11, 5.75, 5.43, 5.43, 5.21, 5.21, 5.21, 5.21, 8.49, 8.49, 8.49, 8.05, 7.6, 7.58, 7.13, 7.07, 7.21, 7.2, 7.61, 7.9, 8.27, 8.43, 8.43, 8.43, 8.43, 8.43, 7.9, 8.15, 7.15, 6.87, 7.21, 6.87, 6.87, 6.87, 6.87, 6.87, 6.87, 6.87, 6.79, 6.57, 6.51, 5.59, 5.86, 5.75, 5.75, 5.75, 6.0, 6.0, 6.0, 6.0, 6.0, 5.6, 5.6, 5.6, 5.6, 5.21, 5.21, 5.21, 5.21, 5.21, 5.37, 5.75, 5.75, 6.0, 6.0, 6.0, 6.0, 6.0, 6.0, 5.6, 5.6, 6.0, 5.47, 6.13, 5.75, 4.84, 5.82, 5.82, 6.4, 6.44, 6.79, 8.05, 8.63, 9.6, 11.09, 11.83, 11.9, 10.86, 10.86, 12.89, 14.13, 15.2, 17.04, 17.33, 17.59, 15.69, 11.15, 8.05, 4.77, 3.58, 3.13, 2.54, 1.2, 3.2, 3.2, 3.2, 8.49, 8.49, 8.49, 8.05, 8.03, 8.03, 7.51, 7.4, 7.51, 7.08, 7.23, 7.76, 7.9, 8.27, 8.27, 8.27, 8.27, 8.27, 8.27, 7.9, 6.79, 6.87, 6.87, 6.87, 6.87, 6.87, 6.87, 7.15, 7.15, 6.79, 6.79, 6.7, 6.51, 6.41, 6.28, 5.75, 6.0, 6.0, 6.0, 6.0, 6.0, 6.0, 6.0, 5.6, 5.6, 5.6, 5.6, 5.47, 5.47, 5.21, 5.21, 5.21, 5.21, 6.0, 6.0, 6.0, 6.0, 6.0, 6.0, 6.0, 5.6, 5.81, 5.81, 5.6, 5.47, 6.13, 5.6, 5.6, 5.75, 5.46, 5.82, 6.44, 7.07, 8.4, 8.95, 9.49, 10.15, 10.87, 11.28, 10.63, 10.9, 12.16, 13.51, 15.25, 16.73, 17.33, 16.44, 14.47, 10.02, 3.2, 2.53, 2.41, 2.15, 2.2, 2.2, 2.88, 2.88, 2.88, 8.49, 8.49, 8.49, 8.47, 8.47, 7.97, 7.97, 7.74, 7.31, 7.48, 7.23, 7.61, 7.76, 8.15, 7.9, 7.9, 7.9, 8.27, 8.27, 7.9, 7.35, 6.79, 6.52, 6.87, 7.15, 6.79, 6.79, 6.79, 6.79, 7.07, 6.7, 6.7, 6.56, 6.67, 6.28, 6.1, 5.75, 5.75, 5.75, 5.75, 6.0, 6.0, 6.0, 5.6, 5.6, 5.6, 5.6, 5.6, 5.47, 5.47, 5.47, 5.47, 5.47, 5.6, 6.0, 6.0, 6.0, 6.0, 6.0, 5.6, 5.81, 5.31, 5.31, 5.72, 5.47, 6.8, 5.75, 5.01, 5.36, 5.43, 6.4, 6.44, 7.6, 8.0, 8.55, 8.63, 9.6, 10.28, 10.29, 9.92, 9.92, 10.28, 11.87, 14.03, 17.38, 17.85, 15.96, 12.66, 7.32, 5.64, 4.95, 4.01, 2.98, 3.33, 3.79, 3.47, 3.47, 3.47, 8.49, 8.49, 8.49, 8.47, 8.47, 8.42, 8.3, 8.0, 7.71, 7.48, 7.48, 7.48, 7.61, 7.61, 7.76, 7.76, 8.15, 8.15, 7.9, 7.9, 7.35, 6.79, 6.79, 6.79, 6.79, 7.07, 7.07, 6.7, 6.7, 6.7, 6.95, 6.95, 6.8, 6.8, 6.67, 6.28, 6.13, 5.75, 5.75, 5.75, 5.75, 6.0, 6.0, 5.6, 5.6, 6.0, 5.6, 5.6, 5.08, 5.08, 5.47, 5.47, 5.47, 5.6, 6.0, 5.6, 5.6, 5.6, 5.6, 5.81, 5.4, 5.31, 5.31, 5.31, 5.47, 5.82, 5.46, 5.46, 5.43, 5.75, 6.51, 6.02, 7.35, 7.6, 8.05, 8.67, 9.27, 9.3, 9.66, 9.62, 9.62, 10.28, 10.18, 12.78, 17.29, 18.59, 12.92, 9.45, 7.9, 8.49, 8.22, 6.32, 4.16, 3.91, 3.79, 3.79, 3.79, 3.79, 8.49, 8.94, 8.92, 8.92, 8.87, 8.77, 8.64, 8.0, 7.71, 7.48, 7.48, 7.48, 7.48, 7.48, 7.87, 7.61, 7.76, 7.76, 7.76, 7.35, 7.35, 6.79, 6.7, 6.7, 6.7, 6.7, 6.7, 6.95, 6.95, 6.95, 6.95, 6.95, 7.2, 6.8, 6.41, 6.03, 5.86, 5.75, 5.75, 5.75, 5.75, 5.75, 5.75, 6.0, 6.0, 6.1, 6.3, 5.6, 5.08, 5.08, 5.08, 5.08, 5.47, 5.81, 5.81, 5.6, 5.6, 5.81, 5.81, 5.81, 5.4, 5.51, 5.51, 5.31, 5.31, 5.82, 5.46, 5.82, 6.4, 6.28, 6.16, 5.75, 5.59, 7.35, 8.05, 8.67, 9.05, 8.68, 9.04, 9.66, 9.66, 9.66, 9.27, 12.13, 18.32, 17.39, 13.21, 9.45, 7.94, 8.53, 9.2, 7.9, 5.78, 4.83, 4.46, 4.56, 4.56, 4.56, 8.94, 9.37, 9.37, 9.32, 9.32, 8.79, 8.64, 8.0, 7.71, 7.48, 7.48, 7.48, 7.48, 7.48, 7.48, 7.48, 7.48, 7.61, 7.61, 7.61, 7.23, 7.07, 6.7, 6.7, 6.95, 6.95, 6.95, 6.95, 6.95, 6.95, 6.95, 6.95, 6.95, 6.56, 6.67, 6.28, 6.13, 5.75, 5.75, 5.75, 5.75, 5.75, 5.75, 6.0, 6.1, 6.3, 6.1, 5.6, 5.08, 5.08, 5.08, 5.08, 5.31, 5.81, 5.81, 5.81, 5.81, 5.81, 5.81, 5.81, 5.81, 5.51, 5.51, 5.31, 5.81, 5.47, 5.82, 5.46, 6.44, 6.44, 6.44, 6.21, 5.21, 4.84, 7.03, 8.05, 8.67, 8.67, 9.05, 9.65, 9.67, 9.67, 9.3, 12.14, 21.59, 18.88, 14.31, 9.34, 6.35, 6.35, 7.59, 7.51, 6.31, 5.28, 5.21, 5.37, 5.37, 5.37, 9.37, 9.37, 9.77, 9.77, 9.23, 8.79, 8.64, 7.81, 7.71, 7.48, 7.48, 7.71, 7.71, 7.71, 7.48, 7.48, 7.48, 7.48, 7.48, 7.23, 7.07, 7.07, 6.95, 6.95, 6.95, 6.95, 6.95, 6.95, 7.2, 6.8, 7.2, 7.2, 7.2, 6.8, 6.28, 6.28, 5.75, 5.75, 5.75, 5.75, 5.75, 6.0, 6.0, 6.1, 6.3, 6.3, 6.0, 5.47, 5.47, 5.08, 5.08, 5.31, 5.31, 5.81, 5.81, 5.81, 5.81, 5.4, 5.81, 5.81, 5.81, 5.81, 5.4, 5.81, 5.6, 5.47, 5.43, 5.21, 5.82, 6.44, 6.44, 5.77, 5.77, 5.06, 5.82, 7.06, 8.06, 8.67, 9.03, 9.03, 9.05, 9.67, 10.63, 18.96, 21.01, 18.88, 13.25, 6.54, 3.07, 3.64, 5.78, 7.36, 6.31, 5.38, 6.01, 6.39, 6.39, 6.39, 9.82, 9.82, 9.77, 9.77, 9.23, 8.67, 8.48, 8.22, 7.81, 7.81, 7.81, 7.71, 7.31, 7.31, 7.31, 7.71, 7.31, 7.08, 7.48, 7.48, 6.95, 6.95, 6.95, 7.31, 7.2, 7.2, 7.2, 7.2, 7.2, 6.8, 6.8, 6.8, 6.8, 6.8, 6.28, 6.28, 5.75, 5.75, 5.75, 6.0, 6.0, 6.0, 6.1, 6.3, 6.3, 6.0, 5.6, 5.47, 5.47, 5.47, 5.47, 5.31, 5.4, 5.4, 5.81, 5.4, 5.4, 5.4, 5.81, 5.81, 5.81, 5.81, 5.81, 5.6, 5.6, 5.21, 5.47, 4.93, 5.82, 6.4, 5.82, 5.82, 5.77, 5.77, 5.77, 6.79, 7.41, 8.67, 8.67, 8.06, 8.42, 9.67, 14.17, 18.16, 20.85, 17.82, 8.84, 0.71, -0.0, 2.18, 5.09, 7.28, 7.52, 6.88, 7.02, 7.07, 7.07, 7.07, 9.82, 9.82, 9.77, 9.32, 9.23, 8.64, 8.48, 8.22, 8.22, 8.22, 7.81, 7.93, 7.31, 7.31, 7.31, 7.31, 7.31, 7.31, 7.31, 7.2, 6.95, 7.31, 7.31, 7.31, 7.31, 7.31, 6.8, 6.8, 6.8, 6.8, 7.01, 7.01, 7.01, 7.01, 6.51, 6.1, 6.0, 6.0, 5.6, 6.0, 6.0, 6.3, 6.3, 6.3, 5.6, 5.6, 5.47, 5.47, 5.47, 5.47, 5.47, 5.31, 5.4, 5.57, 5.57, 5.57, 5.57, 5.99, 5.99, 5.81, 5.81, 5.81, 5.81, 5.6, 5.75, 5.75, 5.21, 5.47, 6.16, 6.16, 5.43, 5.21, 5.58, 5.82, 5.82, 5.82, 6.39, 8.06, 8.68, 8.68, 8.03, 9.04, 14.39, 17.59, 21.82, 18.16, 5.75, -2.53, -0.72, 2.06, 5.62, 7.73, 8.53, 8.65, 7.68, 7.07, 7.07, 7.07, 9.82, 9.82, 9.32, 9.23, 8.79, 8.64, 8.48, 8.22, 8.22, 8.3, 8.0, 8.0, 7.51, 7.51, 7.31, 7.31, 7.31, 7.31, 7.31, 7.2, 7.31, 7.31, 7.31, 7.51, 7.51, 7.51, 7.09, 7.01, 7.01, 7.01, 7.01, 7.01, 7.01, 6.6, 6.51, 6.1, 6.0, 5.6, 5.6, 6.23, 6.3, 6.3, 6.0, 6.0, 5.6, 5.6, 5.47, 5.08, 5.47, 5.47, 5.81, 5.4, 5.57, 5.57, 5.57, 5.57, 5.99, 5.99, 5.99, 5.99, 5.99, 5.81, 5.81, 5.6, 5.6, 5.6, 5.6, 5.47, 5.72, 5.82, 5.43, 5.6, 5.21, 5.58, 5.46, 5.82, 5.82, 7.44, 8.06, 8.68, 8.38, 10.87, 12.47, 15.59, 21.7, 20.44, 8.4, 0.76, 0.71, 2.9, 5.46, 7.85, 9.2, 9.3, 8.32, 7.69, 7.69, 7.69, 9.37, 9.37, 9.32, 8.79, 8.64, 8.48, 8.42, 8.3, 8.3, 8.48, 8.48, 8.0, 7.51, 7.51, 7.51, 7.51, 7.51, 7.51, 7.51, 7.09, 7.51, 7.51, 7.51, 7.51, 7.51, 7.51, 7.51, 7.09, 7.09, 7.26, 7.26, 7.21, 6.79, 6.6, 6.51, 6.1, 6.0, 6.23, 6.3, 6.3, 6.1, 6.0, 6.0, 6.0, 5.6, 5.6, 5.47, 5.08, 5.31, 5.31, 5.81, 5.4, 5.57, 5.57, 5.57, 5.99, 5.99, 5.99, 5.99, 5.99, 5.99, 5.81, 5.81, 5.6, 5.6, 5.6, 5.6, 5.6, 5.08, 5.75, 5.75, 5.21, 5.21, 4.81, 5.82, 6.21, 5.43, 6.8, 7.44, 8.06, 9.2, 10.55, 12.14, 15.41, 20.91, 22.07, 13.19, 6.23, 4.28, 4.37, 5.64, 7.27, 9.21, 9.66, 9.05, 9.27, 9.27, 9.27, 9.32, 9.32, 9.32, 8.79, 8.64, 8.48, 8.22, 8.3, 8.72, 8.91, 8.48, 8.0, 7.69, 7.09, 7.09, 7.51, 7.51, 7.51, 7.51, 7.09, 7.09, 7.51, 7.51, 7.51, 7.51, 7.51, 7.51, 7.51, 7.69, 7.26, 7.26, 7.21, 6.79, 6.6, 6.51, 6.1, 6.3, 6.3, 6.1, 6.1, 6.0, 6.0, 6.0, 6.0, 6.0, 5.6, 5.6, 5.81, 5.81, 5.81, 5.81, 5.99, 5.57, 5.99, 5.99, 5.99, 5.99, 5.99, 5.99, 5.99, 5.57, 5.99, 5.81, 5.6, 5.6, 5.6, 5.81, 5.81, 5.31, 5.75, 5.75, 5.21, 5.21, 5.21, 5.46, 5.82, 6.21, 5.82, 6.44, 8.55, 9.33, 10.89, 12.27, 14.57, 18.96, 20.72, 14.95, 9.2, 7.59, 6.64, 5.69, 6.68, 8.55, 9.67, 9.65, 9.6, 9.6, 9.6, 9.32, 9.32, 9.23, 8.67, 8.64, 8.48, 8.3, 8.72, 8.72, 8.79, 8.91, 8.48, 8.0, 7.09, 7.09, 7.51, 7.51, 7.51, 7.51, 7.09, 7.09, 7.51, 7.51, 7.51, 7.51, 7.69, 7.69, 7.69, 7.69, 7.69, 7.26, 7.21, 7.01, 6.6, 6.51, 6.51, 6.1, 6.1, 6.1, 6.1, 6.1, 6.1, 6.1, 6.1, 6.1, 6.0, 5.6, 5.81, 5.81, 5.81, 5.81, 5.99, 5.57, 5.57, 5.57, 5.7, 5.7, 5.7, 5.7, 5.7, 5.57, 5.99, 5.81, 5.81, 5.81, 5.81, 5.81, 5.81, 5.31, 5.09, 4.8, 5.2, 4.84, 5.2, 5.21, 5.82, 6.4, 6.7, 7.55, 9.06, 9.54, 10.45, 11.84, 13.96, 17.59, 18.39, 14.39, 9.84, 9.21, 7.96, 6.7, 6.7, 7.92, 9.27, 9.6, 10.15, 10.15, 10.15, 9.23, 9.23, 9.23, 9.11, 8.48, 8.3, 8.72, 8.72, 8.72, 8.79, 8.79, 8.72, 8.22, 7.31, 7.51, 7.51, 7.51, 7.51, 7.51, 7.26, 7.26, 7.69, 7.69, 7.74, 7.69, 7.69, 7.69, 7.69, 7.69, 7.69, 7.51, 7.09, 7.01, 7.01, 6.6, 6.51, 6.51, 6.51, 5.89, 6.28, 6.51, 6.51, 6.51, 6.51, 6.1, 6.1, 6.0, 5.81, 5.81, 5.81, 5.99, 5.99, 5.7, 5.7, 5.7, 5.7, 5.78, 5.78, 5.78, 5.7, 5.57, 5.99, 5.81, 5.81, 6.23, 6.23, 5.81, 5.81, 5.31, 5.09, 5.02, 5.2, 4.8, 5.81, 5.2, 6.02, 6.51, 6.98, 7.42, 7.89, 9.11, 10.45, 11.66, 13.72, 15.84, 17.22, 14.46, 11.28, 9.82, 9.19, 7.59, 7.28, 7.85, 8.8, 9.86, 10.38, 10.38, 10.38, 9.23, 9.23, 9.11, 8.96, 8.91, 8.72, 8.72, 8.72, 8.72, 8.72, 8.72, 8.51, 8.0, 7.81, 7.31, 7.51, 7.51, 7.69, 7.69, 7.69, 7.69, 7.69, 7.74, 7.74, 7.74, 7.69, 7.69, 7.69, 7.69, 7.51, 7.51, 7.51, 7.01, 7.01, 7.01, 6.6, 6.51, 6.51, 6.51, 6.51, 6.51, 6.51, 6.51, 6.51, 6.51, 6.51, 6.3, 6.3, 6.3, 6.04, 6.14, 6.14, 5.7, 5.78, 5.78, 5.78, 5.78, 5.78, 5.78, 5.7, 5.99, 5.99, 5.81, 6.3, 6.3, 6.3, 6.23, 5.81, 5.31, 5.09, 5.02, 5.02, 4.6, 6.23, 5.59, 6.02, 6.51, 6.94, 7.21, 7.63, 8.63, 10.25, 11.45, 12.56, 14.17, 15.59, 14.7, 12.52, 10.63, 9.62, 9.04, 8.05, 7.46, 8.67, 9.6, 10.25, 10.25, 10.25, 9.23, 9.23, 9.11, 8.96, 8.91, 8.72, 8.72, 8.72, 8.72, 8.72, 8.72, 8.51, 8.0, 7.81, 7.31, 7.51, 7.51, 7.69, 7.69, 7.69, 7.69, 7.69, 7.74, 7.74, 7.74, 7.69, 7.69, 7.69, 7.69, 7.51, 7.51, 7.51, 7.01, 7.01, 7.01, 6.6, 6.51, 6.51, 6.51, 6.51, 6.51, 6.51, 6.51, 6.51, 6.51, 6.51, 6.3, 6.3, 6.3, 6.04, 6.14, 6.14, 5.7, 5.78, 5.78, 5.78, 5.78, 5.78, 5.78, 5.7, 5.99, 5.99, 5.81, 6.3, 6.3, 6.3, 6.23, 5.81, 5.31, 5.09, 5.02, 5.02, 4.6, 6.23, 5.59, 6.02, 6.51, 6.94, 7.21, 7.63, 8.63, 9.75, 10.95, 12.04, 13.35, 13.99, 14.13, 13.14, 11.87, 10.55, 9.92, 9.04, 8.06, 8.4, 8.82, 9.54, 9.54, 9.54]}, {"header": {"dx": 0.06612293990616946, "dy": 0.0552356325346848, "nx": 98, "ny": 59, "la1": 35.046912555036876, "la2": 31.78801023549047, "lo1": -121.43107172385933, "lo2": -114.95102361305473, "refTime": "2026041302", "parameterCategory": 1, "parameterNumber": 3}, "data": [2.92, 3.4, 4.08, 4.08, 4.47, 4.75, 4.75, 4.47, 4.47, 4.05, 4.08, 4.1, 4.16, 4.01, 4.29, 3.22, 4.01, 4.29, 5.37, 5.69, 6.01, 5.72, 6.32, 6.64, 7.35, 7.27, 7.97, 8.65, 8.65, 9.3, 9.65, 9.27, 8.06, 5.06, 1.55, 0.0, -0.8, -1.34, -2.0, -1.6, -0.89, 0.0, 1.26, 2.21, 3.49, 4.26, 5.64, 7.18, 7.9, 8.93, 9.23, 9.23, 8.76, 8.76, 8.37, 8.37, 8.66, 8.18, 8.18, 7.9, 7.38, 7.12, 6.33, 6.2, 6.42, 7.97, 9.67, 10.29, 10.29, 9.92, 9.62, 9.23, 8.85, 7.73, 6.21, 5.48, 4.71, 3.53, 3.17, 3.11, 2.31, 1.6, 0.84, 1.6, 6.21, 9.89, 10.43, 9.9, 8.05, 7.68, 6.95, 6.88, 7.48, 7.82, 7.82, 7.82, 7.9, 7.68, 2.92, 3.4, 3.83, 4.08, 4.47, 4.75, 4.75, 4.75, 4.47, 4.73, 4.08, 4.56, 4.16, 4.36, 5.69, 5.69, 4.11, 4.74, 5.06, 5.77, 6.01, 6.01, 6.87, 7.81, 7.02, 7.02, 7.02, 8.06, 8.67, 10.55, 11.62, 11.75, 10.68, 6.0, 2.12, 0.45, -0.0, -0.0, -0.0, 0.45, 1.79, 2.97, 4.4, 5.09, 6.32, 6.88, 7.9, 7.9, 8.6, 8.93, 8.85, 8.46, 8.01, 8.09, 7.73, 8.37, 8.66, 8.66, 8.18, 7.9, 7.38, 6.33, 6.2, 6.42, 8.03, 9.67, 10.29, 10.28, 9.92, 9.23, 8.53, 7.82, 7.36, 6.33, 6.21, 4.81, 3.87, 3.53, 3.17, 3.11, 2.31, 1.6, 0.84, 1.6, 6.21, 9.89, 10.43, 9.9, 8.05, 7.68, 6.95, 6.88, 7.48, 7.82, 7.82, 7.82, 7.9, 7.68, 2.92, 3.6, 3.83, 4.08, 4.47, 4.75, 4.75, 4.75, 4.47, 4.73, 4.08, 3.85, 4.29, 4.74, 4.65, 4.95, 4.74, 4.11, 5.15, 5.69, 5.77, 6.28, 6.7, 7.64, 8.94, 8.03, 7.41, 7.07, 7.89, 9.97, 12.14, 13.72, 13.29, 10.47, 7.11, 3.13, 1.79, 1.79, 1.7, 3.95, 6.36, 7.06, 7.44, 7.41, 7.35, 7.27, 7.59, 7.9, 8.22, 7.82, 8.12, 8.01, 7.73, 8.01, 7.8, 8.01, 8.37, 8.18, 8.18, 7.38, 7.12, 6.45, 7.18, 8.68, 10.23, 10.28, 10.66, 10.28, 9.56, 8.85, 7.36, 6.57, 5.76, 5.3, 4.75, 4.1, 3.04, 3.25, 2.72, 2.44, 2.39, 1.67, 1.72, 4.84, 9.15, 10.84, 10.6, 9.49, 7.67, 7.35, 7.18, 7.18, 7.08, 7.08, 7.08, 7.08, 7.59, 7.02, 2.89, 3.6, 4.05, 4.08, 4.47, 4.45, 4.75, 4.75, 4.47, 4.08, 4.08, 3.85, 4.29, 4.43, 4.74, 5.06, 5.06, 4.43, 4.81, 5.77, 5.77, 5.59, 5.59, 6.11, 7.35, 8.94, 8.67, 8.0, 7.42, 8.46, 10.7, 12.42, 13.21, 12.75, 11.13, 9.11, 7.74, 5.75, 6.0, 7.71, 8.82, 8.55, 8.05, 8.06, 7.35, 7.27, 7.27, 7.18, 7.48, 7.82, 7.44, 7.73, 7.73, 7.73, 8.46, 8.01, 7.63, 7.9, 7.38, 6.77, 6.33, 7.18, 8.68, 10.23, 10.87, 10.53, 9.92, 9.84, 9.83, 8.79, 7.73, 6.31, 4.92, 4.31, 3.53, 2.37, 1.6, 1.6, 1.6, 1.52, 1.43, 0.84, 3.35, 7.89, 10.62, 10.93, 10.52, 9.2, 7.06, 7.27, 6.31, 6.31, 5.52, 5.52, 6.31, 7.18, 7.02, 7.06, 2.89, 3.37, 3.4, 3.84, 4.75, 4.45, 4.75, 4.47, 4.08, 4.08, 4.08, 3.85, 4.29, 3.63, 4.01, 4.01, 4.74, 5.15, 4.46, 5.82, 6.7, 5.93, 6.13, 5.93, 6.44, 8.15, 9.48, 9.8, 9.11, 8.01, 8.49, 8.94, 9.8, 9.54, 10.18, 9.2, 8.72, 7.56, 6.44, 7.89, 9.24, 8.63, 8.67, 8.68, 8.03, 7.64, 7.59, 7.18, 7.18, 7.08, 7.08, 7.08, 7.82, 8.85, 8.46, 8.01, 8.01, 7.12, 7.01, 6.33, 6.05, 8.42, 10.68, 11.75, 11.83, 10.9, 9.92, 10.28, 10.58, 10.12, 8.76, 7.73, 6.44, 4.8, 3.16, 2.1, 0.76, 0.79, 0.82, 0.73, 0.73, 1.66, 6.28, 9.36, 10.25, 10.16, 10.01, 8.67, 6.95, 7.18, 6.31, 5.52, 4.71, 4.83, 5.38, 6.53, 6.32, 6.39, 2.89, 2.89, 3.4, 4.1, 4.12, 4.45, 4.75, 4.1, 4.08, 4.08, 3.84, 3.85, 4.29, 3.91, 3.35, 3.35, 4.81, 4.81, 5.21, 5.43, 6.21, 6.44, 7.6, 7.6, 7.2, 7.63, 8.22, 9.21, 9.75, 9.11, 7.11, 7.15, 6.65, 6.94, 6.64, 7.67, 7.76, 6.24, 5.69, 6.7, 8.19, 9.75, 9.65, 9.67, 9.3, 9.3, 8.6, 7.52, 7.18, 7.18, 7.18, 8.22, 8.53, 8.53, 8.01, 7.63, 6.87, 6.33, 6.33, 6.2, 7.02, 10.01, 12.37, 12.7, 11.88, 11.53, 10.28, 10.28, 9.9, 10.18, 9.4, 8.66, 8.01, 6.97, 4.68, 3.02, 1.54, 0.77, 0.8, 0.8, 0.81, 3.2, 6.66, 8.9, 9.26, 9.54, 9.2, 8.3, 7.52, 7.08, 6.05, 5.41, 4.6, 4.71, 5.38, 6.24, 6.01, 6.06, 2.89, 2.89, 3.64, 4.1, 4.12, 4.12, 4.12, 4.1, 3.84, 3.84, 3.84, 4.12, 4.29, 4.01, 4.02, 3.48, 4.11, 4.43, 4.46, 4.84, 4.46, 4.84, 5.43, 6.8, 7.81, 6.8, 7.63, 8.17, 8.22, 7.2, 7.63, 7.11, 6.65, 6.02, 6.0, 7.03, 7.06, 7.27, 6.32, 6.28, 7.52, 8.6, 9.2, 9.1, 8.94, 8.93, 9.17, 8.12, 7.9, 8.75, 9.08, 8.93, 8.85, 8.01, 7.24, 6.33, 6.09, 5.3, 4.8, 5.49, 8.82, 11.84, 12.87, 13.23, 12.47, 11.9, 10.9, 9.62, 8.93, 8.76, 7.9, 7.12, 6.53, 5.51, 4.01, 3.16, 1.54, 0.8, 1.6, 2.98, 2.15, 5.59, 7.45, 9.24, 9.11, 9.18, 9.05, 7.59, 7.08, 6.2, 5.54, 4.92, 4.68, 5.52, 6.05, 5.94, 5.3, 5.06, 2.37, 2.92, 3.42, 3.85, 4.12, 4.12, 3.85, 4.1, 3.84, 3.42, 3.68, 3.84, 4.01, 4.43, 5.06, 3.79, 3.79, 4.11, 3.79, 4.19, 3.48, 2.41, 2.98, 4.15, 4.84, 5.37, 5.4, 5.81, 6.13, 6.13, 7.06, 8.05, 7.52, 7.21, 6.0, 5.46, 4.74, 5.24, 6.01, 6.13, 6.79, 7.21, 7.07, 6.87, 6.95, 7.9, 7.52, 7.82, 9.27, 9.69, 8.65, 8.53, 8.46, 8.01, 6.45, 5.63, 4.8, 3.95, 4.0, 5.82, 9.26, 11.96, 12.37, 12.79, 12.51, 11.9, 10.18, 8.12, 7.08, 5.51, 4.58, 3.29, 2.41, 1.58, 0.8, 0.71, 0.82, 1.55, 3.22, 5.37, 7.96, 7.2, 8.14, 9.18, 9.18, 9.05, 7.96, 7.18, 5.76, 5.63, 4.92, 4.32, 4.5, 5.52, 5.38, 5.49, 4.65, 4.74, 2.37, 2.92, 3.42, 3.45, 4.12, 4.12, 3.85, 3.68, 3.42, 3.42, 3.45, 3.47, 3.76, 3.63, 4.43, 4.11, 3.48, 3.48, 4.11, 3.79, 4.11, 2.73, 2.21, 2.97, 3.58, 3.79, 3.72, 3.72, 4.65, 5.81, 6.26, 6.26, 6.14, 6.23, 5.15, 3.47, 2.6, 3.76, 4.47, 5.93, 7.2, 7.07, 6.52, 6.32, 5.72, 5.64, 6.98, 8.22, 9.27, 10.28, 9.8, 8.53, 7.73, 6.97, 5.63, 3.95, 3.21, 3.15, 3.33, 6.28, 9.8, 11.52, 11.66, 12.29, 11.9, 10.86, 8.66, 6.33, 4.13, 3.29, 1.58, 0.0, 0.0, -0.71, -0.7, -0.79, 0.76, 3.72, 6.44, 9.19, 9.92, 8.58, 9.14, 9.45, 9.05, 7.95, 6.95, 5.76, 5.09, 4.4, 4.15, 4.05, 4.4, 5.64, 6.14, 5.49, 4.65, 4.11, 2.23, 2.92, 3.42, 3.45, 3.84, 4.12, 3.45, 3.45, 3.42, 3.42, 3.45, 2.8, 2.82, 2.84, 3.22, 3.63, 3.35, 2.95, 3.49, 4.11, 4.11, 3.79, 4.09, 3.72, 4.09, 4.11, 3.79, 4.66, 5.2, 6.14, 4.92, 3.58, 3.58, 3.72, 3.76, 3.22, 2.4, 3.48, 5.06, 5.69, 6.44, 6.39, 6.32, 4.71, 4.6, 5.38, 6.14, 7.64, 8.93, 9.62, 9.56, 9.48, 8.46, 6.97, 5.76, 4.2, 2.51, 1.7, 3.58, 7.42, 10.93, 11.84, 13.44, 12.15, 11.53, 10.51, 8.05, 4.92, 2.17, 0.0, 0.0, -0.72, -2.11, -2.11, -2.21, -0.76, 2.4, 6.94, 9.05, 9.82, 10.82, 10.81, 9.84, 9.82, 8.58, 7.31, 5.78, 5.18, 4.31, 3.46, 3.53, 3.44, 4.37, 5.38, 6.05, 5.38, 4.83, 4.43, 2.4, 2.75, 3.42, 3.45, 3.47, 3.47, 3.45, 2.77, 2.77, 2.77, 2.77, 3.0, 2.8, 2.82, 2.8, 2.6, 2.6, 2.2, 2.18, 2.18, 2.6, 2.6, 3.63, 3.35, 3.76, 3.79, 4.65, 4.8, 4.8, 4.8, 2.84, 2.0, 1.26, 0.85, 0.88, 2.32, 4.02, 4.74, 5.06, 6.39, 6.39, 6.01, 5.89, 5.72, 4.66, 4.71, 6.32, 7.41, 7.02, 7.64, 10.28, 11.25, 11.52, 10.9, 9.92, 8.65, 6.44, 2.98, 3.13, 8.05, 12.3, 13.29, 13.07, 12.29, 11.9, 11.14, 10.98, 8.66, 2.51, -3.35, -2.8, -1.36, -1.45, -2.9, -2.2, 0.79, 6.13, 8.95, 10.23, 10.29, 10.47, 10.46, 10.46, 9.53, 7.9, 6.58, 5.04, 4.2, 3.53, 2.83, 2.9, 3.91, 4.71, 5.64, 5.52, 5.28, 4.94, 5.09, 2.26, 2.96, 3.21, 3.45, 3.47, 3.47, 3.0, 2.77, 2.77, 2.77, 2.77, 3.0, 2.8, 2.8, 2.36, 2.36, 2.36, 2.36, 1.67, 1.67, 1.67, 1.67, 1.84, 2.66, 2.49, 2.8, 4.02, 3.15, 2.68, 1.41, 1.27, 1.13, 0.85, 0.0, 0.0, 1.7, 3.11, 4.16, 5.77, 6.06, 6.39, 5.59, 5.59, 5.46, 4.96, 5.77, 7.76, 8.15, 7.76, 8.54, 10.63, 12.47, 14.07, 15.49, 14.83, 13.75, 12.08, 7.07, 3.58, 7.55, 12.86, 14.49, 13.89, 12.39, 12.23, 14.11, 16.74, 16.11, 10.87, 1.34, -3.74, -2.54, -0.79, -0.88, 0.0, 5.34, 9.33, 10.23, 10.81, 9.84, 9.62, 9.85, 10.12, 9.48, 8.53, 6.51, 5.04, 3.51, 2.83, 2.75, 2.9, 4.28, 5.04, 4.83, 4.5, 4.5, 4.83, 5.06, 2.26, 2.96, 3.0, 3.47, 3.47, 3.04, 3.0, 2.77, 2.29, 2.29, 2.49, 2.8, 2.8, 2.8, 2.8, 2.8, 2.16, 2.16, 1.8, 1.65, 1.76, 2.29, 2.29, 1.76, 2.14, 2.16, 2.36, 2.4, 1.57, 0.57, 0.79, 1.8, 1.8, 1.8, 1.66, 2.53, 3.22, 4.74, 5.09, 5.77, 5.37, 5.37, 4.95, 4.65, 4.74, 6.4, 8.79, 8.79, 8.22, 8.22, 8.8, 10.0, 11.72, 13.15, 13.77, 13.62, 13.51, 11.87, 6.07, 7.6, 12.49, 13.49, 12.39, 11.6, 12.56, 15.24, 18.82, 22.06, 20.55, 13.04, 3.13, -1.98, -1.79, 2.0, 5.75, 9.08, 10.8, 11.9, 11.44, 10.12, 8.49, 7.73, 8.01, 7.79, 8.76, 7.36, 4.83, 2.99, 2.82, 2.82, 3.8, 4.28, 5.04, 4.6, 3.88, 4.83, 4.83, 6.39, 2.26, 2.77, 3.0, 3.04, 3.04, 2.8, 3.0, 2.29, 2.29, 2.29, 2.32, 2.32, 2.32, 2.8, 2.8, 2.8, 2.32, 2.32, 1.65, 1.76, 2.26, 2.75, 2.92, 2.92, 2.75, 3.0, 2.82, 2.4, 2.2, 2.22, 2.86, 4.19, 3.76, 3.35, 3.35, 4.11, 4.46, 5.09, 4.81, 4.81, 4.74, 4.36, 4.47, 5.69, 7.07, 8.22, 7.35, 8.22, 7.81, 7.81, 7.81, 7.81, 8.17, 8.22, 8.15, 7.32, 8.15, 10.43, 10.82, 9.26, 12.04, 12.18, 11.8, 12.18, 12.8, 13.78, 15.96, 17.59, 18.79, 17.07, 12.78, 2.53, -0.85, 4.02, 9.33, 11.44, 11.88, 11.87, 10.98, 10.25, 8.66, 6.87, 5.68, 5.6, 7.67, 7.12, 5.52, 3.69, 3.47, 4.22, 4.14, 4.14, 4.5, 4.07, 3.53, 4.5, 5.21, 6.39, 2.26, 2.29, 2.8, 2.8, 3.04, 2.8, 2.32, 2.29, 2.29, 2.29, 2.32, 2.32, 2.32, 2.32, 2.32, 2.32, 2.14, 1.76, 1.76, 2.26, 2.75, 2.92, 3.37, 3.4, 3.64, 4.1, 3.84, 3.49, 3.49, 4.07, 4.65, 5.21, 5.93, 5.06, 5.06, 5.93, 6.7, 5.09, 6.28, 4.01, 4.74, 5.69, 5.69, 6.01, 7.07, 7.07, 7.81, 7.81, 7.81, 6.8, 6.7, 6.8, 5.75, 4.65, 4.65, 5.01, 5.37, 7.9, 10.82, 11.62, 10.93, 10.79, 11.21, 12.08, 12.6, 13.01, 14.81, 13.62, 11.72, 12.64, 14.35, 8.72, 3.22, 6.26, 10.68, 11.9, 11.2, 10.34, 10.15, 9.28, 7.93, 5.6, 4.15, 3.61, 2.76, 4.68, 5.52, 5.21, 5.94, 6.24, 4.46, 4.14, 4.28, 4.31, 3.78, 4.56, 6.06, 6.06, 1.63, 2.29, 2.32, 2.32, 2.32, 2.32, 2.32, 2.29, 2.29, 1.65, 1.8, 1.8, 1.8, 2.32, 2.14, 2.29, 1.76, 1.63, 1.73, 2.26, 2.92, 3.37, 3.6, 3.83, 4.47, 4.47, 5.01, 5.29, 5.58, 5.75, 6.28, 6.41, 6.03, 6.28, 5.93, 5.09, 5.46, 5.46, 5.93, 5.37, 4.74, 5.06, 6.01, 6.52, 6.52, 6.7, 6.7, 7.2, 6.7, 6.28, 6.28, 5.37, 4.47, 3.76, 3.48, 3.48, 5.01, 6.52, 8.58, 8.58, 8.05, 8.72, 9.2, 9.8, 10.18, 10.7, 10.43, 10.55, 11.35, 11.38, 11.53, 10.25, 7.97, 9.26, 10.95, 11.54, 10.34, 9.39, 7.93, 7.23, 7.01, 5.6, 3.95, 3.06, 2.31, 3.09, 4.6, 6.24, 7.18, 7.18, 5.38, 3.7, 4.12, 3.61, 4.28, 4.36, 5.37, 5.37, 1.76, 2.29, 2.32, 2.32, 2.32, 2.32, 1.8, 1.76, 1.76, 1.65, 1.65, 1.8, 1.8, 1.8, 1.65, 1.76, 1.63, 1.73, 1.73, 2.4, 2.73, 2.89, 3.83, 4.47, 5.08, 5.37, 5.93, 6.41, 6.56, 7.2, 7.2, 7.2, 7.2, 7.76, 5.69, 6.07, 5.82, 5.75, 4.74, 5.06, 5.93, 4.74, 6.01, 4.74, 6.01, 5.69, 6.28, 6.28, 6.28, 4.75, 4.75, 3.4, 3.8, 4.71, 4.75, 4.74, 4.43, 3.76, 3.4, 4.44, 5.46, 5.72, 6.52, 7.07, 7.81, 7.71, 8.79, 9.2, 10.99, 11.13, 10.12, 8.19, 8.93, 10.25, 10.23, 10.18, 10.15, 9.42, 7.93, 6.52, 6.43, 6.2, 4.83, 3.6, 4.03, 4.56, 4.56, 6.53, 7.08, 5.76, 4.2, 3.44, 3.44, 3.51, 4.56, 5.06, 5.37, 5.37, 1.76, 1.76, 2.29, 2.32, 2.32, 1.8, 1.65, 1.65, 1.76, 1.76, 1.76, 1.65, 1.12, 1.12, 1.65, 1.76, 1.73, 1.73, 1.71, 2.23, 2.89, 2.92, 4.08, 5.08, 5.65, 5.35, 6.41, 7.34, 7.48, 8.0, 7.81, 7.71, 7.2, 6.79, 6.51, 6.44, 5.46, 5.59, 5.06, 4.74, 5.06, 4.43, 4.43, 4.43, 5.69, 6.01, 5.69, 5.69, 4.75, 5.03, 3.6, 3.4, 3.4, 4.46, 4.75, 5.06, 3.76, 2.6, 2.8, 3.68, 4.71, 5.72, 6.52, 6.7, 6.8, 6.51, 7.21, 7.6, 8.15, 7.68, 6.59, 7.88, 8.56, 8.68, 7.27, 6.97, 7.01, 7.82, 7.32, 6.1, 5.3, 5.52, 4.6, 5.64, 5.59, 6.32, 5.3, 6.42, 6.31, 5.63, 5.63, 3.7, 2.82, 4.22, 5.37, 5.37, 6.32, 6.32, 1.76, 1.76, 1.76, 2.14, 2.14, 1.65, 1.65, 1.65, 1.76, 1.76, 1.63, 1.1, 1.1, 1.2, 1.76, 1.65, 1.63, 1.73, 2.23, 2.23, 2.4, 3.42, 4.75, 5.69, 5.69, 6.28, 6.41, 8.05, 8.24, 8.4, 8.0, 7.48, 6.95, 6.95, 6.7, 6.15, 5.93, 5.06, 4.95, 4.75, 4.16, 3.33, 3.68, 4.46, 4.71, 4.46, 5.03, 5.03, 4.75, 4.22, 3.6, 3.6, 3.6, 4.22, 4.75, 4.47, 4.43, 4.74, 5.06, 4.75, 4.71, 5.72, 6.32, 5.82, 6.4, 6.7, 6.94, 5.77, 3.91, 2.28, 3.42, 6.14, 7.32, 6.21, 3.85, 1.5, 0.8, 1.51, 3.17, 4.55, 3.88, 3.15, 3.91, 5.13, 5.49, 4.71, 3.91, 3.7, 4.6, 4.23, 4.68, 3.95, 3.2, 4.36, 6.06, 6.32, 5.94, 5.94, 1.1, 1.76, 1.76, 1.76, 2.29, 1.76, 1.76, 1.76, 1.63, 1.73, 1.73, 1.09, 1.18, 1.18, 1.1, 1.18, 1.73, 1.73, 2.31, 2.31, 2.54, 3.42, 4.47, 5.1, 5.3, 5.69, 7.06, 7.61, 7.76, 8.15, 8.0, 7.48, 6.95, 6.95, 6.41, 6.51, 6.23, 5.98, 5.08, 4.47, 4.32, 4.05, 4.05, 4.05, 4.08, 4.71, 4.75, 4.75, 4.75, 3.4, 3.6, 4.46, 4.46, 5.03, 3.72, 4.11, 5.93, 4.81, 4.74, 5.03, 5.03, 5.69, 5.69, 6.7, 7.35, 6.94, 6.82, 4.83, 3.06, 1.52, 2.41, 3.22, 2.35, 0.79, -0.76, -3.19, -4.68, -4.87, 0.76, 3.16, 3.85, 3.11, 2.44, 3.15, 3.7, 3.44, 2.97, 2.89, 2.97, 2.76, 3.25, 3.95, 4.71, 5.69, 6.32, 6.88, 6.31, 6.31, 1.1, 1.76, 1.76, 1.76, 1.76, 1.76, 1.76, 1.63, 1.73, 1.71, 1.16, 1.16, 1.16, 1.16, 1.09, 1.09, 1.16, 1.16, 1.16, 1.67, 2.44, 3.4, 4.05, 4.46, 4.71, 5.1, 6.32, 7.35, 7.61, 7.61, 7.48, 7.34, 6.95, 6.95, 6.95, 6.51, 6.23, 5.69, 5.38, 5.1, 4.73, 4.46, 4.71, 4.71, 4.73, 4.71, 4.75, 4.75, 3.91, 3.4, 3.4, 4.75, 5.03, 5.69, 5.69, 4.01, 5.06, 4.74, 4.75, 4.47, 4.75, 4.75, 5.93, 7.2, 6.94, 6.44, 5.37, 5.49, 4.92, 4.01, 4.0, 4.71, 0.0, -5.3, -5.51, -6.09, -7.22, -5.38, -1.58, 2.39, 4.75, 4.93, 3.95, 2.9, 3.21, 2.44, 2.23, 2.17, 1.4, 1.4, 2.23, 3.88, 6.05, 6.23, 6.51, 7.15, 6.29, 6.29, 1.1, 1.2, 1.76, 1.76, 1.76, 1.63, 1.73, 1.73, 1.71, 1.81, 1.69, 1.69, 1.14, 1.14, 1.16, 1.16, 1.16, 1.14, 1.14, 1.69, 2.33, 2.86, 3.56, 4.03, 4.45, 5.36, 6.34, 7.44, 7.9, 7.61, 7.23, 7.48, 6.95, 6.95, 6.95, 6.51, 6.23, 5.69, 5.69, 5.1, 5.1, 4.71, 4.71, 4.71, 4.73, 4.75, 4.46, 3.91, 3.91, 4.75, 4.75, 5.03, 5.69, 6.01, 6.01, 6.01, 5.69, 5.69, 3.68, 3.49, 3.35, 4.01, 5.46, 6.44, 6.82, 6.44, 5.69, 5.59, 7.35, 8.75, 8.91, 12.13, 6.87, -4.85, -5.2, -3.72, -4.07, -3.64, -0.74, 1.4, 3.82, 5.02, 5.2, 3.85, 3.06, 2.18, 1.55, 1.55, 2.18, 1.4, 2.72, 5.13, 6.71, 7.09, 6.36, 6.36, 5.51, 5.51, 1.1, 1.1, 1.1, 1.76, 1.63, 1.73, 1.73, 1.71, 1.81, 1.69, 1.78, 1.78, 1.78, 1.69, 1.14, 1.07, 1.07, 1.14, 1.78, 1.78, 2.33, 2.86, 3.56, 4.03, 4.71, 5.36, 6.34, 7.17, 8.27, 8.15, 7.76, 7.61, 7.48, 7.48, 6.95, 6.51, 6.23, 5.69, 5.38, 5.1, 5.1, 4.73, 4.46, 4.73, 5.1, 5.1, 4.71, 3.91, 3.91, 4.75, 5.03, 5.03, 5.69, 5.69, 5.69, 5.69, 5.37, 6.39, 4.47, 1.6, 1.98, 4.84, 6.82, 7.03, 6.44, 6.06, 5.69, 5.77, 7.07, 8.06, 9.66, 12.33, 1.7, -4.02, -1.9, 0.7, 0.0, -0.74, -0.71, 0.0, 0.71, 2.39, 3.07, 3.11, 2.31, 2.31, 2.26, 3.09, 3.8, 3.91, 3.55, 6.23, 7.09, 6.94, 6.53, 5.77, 4.73, 4.73, 0.56, 0.56, 1.1, 1.1, 1.73, 1.61, 1.71, 1.71, 1.69, 2.33, 2.33, 2.33, 2.19, 2.3, 1.67, 1.2, 1.14, 1.69, 1.78, 2.3, 2.83, 3.52, 4.0, 4.45, 4.71, 5.1, 5.72, 6.92, 7.9, 8.15, 8.15, 7.76, 7.61, 7.23, 6.7, 6.51, 5.98, 5.69, 5.38, 5.1, 4.73, 4.73, 4.73, 4.73, 5.1, 4.75, 4.96, 4.71, 4.46, 4.71, 5.44, 4.46, 4.46, 4.75, 4.75, 5.37, 4.74, 5.69, 4.71, 2.98, 2.6, 5.09, 6.8, 6.79, 6.39, 6.39, 6.79, 7.28, 6.44, 5.77, 4.03, 6.84, 6.26, 1.72, 1.6, 2.33, 1.05, 0.0, -1.14, -2.28, -2.82, -1.36, 0.0, 0.0, 1.56, 2.23, 3.15, 3.8, 4.83, 6.14, 4.83, 5.52, 6.21, 5.8, 4.84, 4.32, 3.53, 3.53, 0.59, 0.59, 1.18, 1.18, 1.18, 1.61, 1.71, 1.69, 1.69, 2.33, 2.33, 2.33, 2.3, 2.3, 2.28, 1.75, 1.78, 1.69, 2.33, 3.01, 3.32, 3.97, 4.66, 4.69, 5.36, 5.1, 6.01, 6.87, 7.72, 8.15, 8.15, 7.76, 7.61, 7.07, 7.07, 6.23, 5.98, 5.38, 5.38, 5.38, 4.73, 4.47, 4.75, 4.75, 4.75, 4.47, 4.32, 4.05, 4.32, 4.08, 4.08, 4.21, 3.4, 3.91, 4.47, 5.06, 5.06, 4.01, 5.03, 5.37, 4.65, 4.8, 5.21, 5.77, 6.39, 7.07, 7.44, 7.06, 6.01, 1.65, 0.79, 3.2, 8.0, 8.86, 5.51, 3.02, 1.41, -1.58, -4.36, -5.38, -5.7, -5.0, -2.88, -0.68, 1.56, 3.78, 4.71, 4.83, 5.38, 7.15, 6.87, 5.62, 5.1, 4.81, 4.24, 3.53, 2.82, 2.82, 0.55, 0.55, 0.59, 1.18, 1.09, 1.16, 1.71, 1.69, 1.69, 2.21, 2.33, 2.33, 2.3, 2.28, 2.28, 2.28, 1.75, 1.78, 2.21, 2.86, 3.52, 4.2, 4.66, 5.34, 5.36, 5.44, 6.28, 7.15, 7.61, 7.76, 7.76, 7.61, 7.61, 6.79, 6.57, 6.23, 5.98, 5.69, 5.38, 5.38, 5.1, 4.75, 4.75, 5.08, 4.75, 4.47, 4.05, 4.05, 4.32, 4.08, 4.05, 3.64, 4.71, 4.46, 4.75, 4.47, 3.68, 4.02, 4.74, 6.28, 6.52, 6.28, 4.43, 5.15, 6.44, 7.44, 7.44, 7.06, 4.96, 3.32, 2.39, 3.41, 6.89, 11.41, 10.87, 8.86, 6.4, 2.11, -2.5, -6.07, -6.44, -4.29, -2.12, 0.71, 4.28, 5.63, 5.3, 5.52, 5.64, 6.36, 7.01, 6.44, 5.02, 4.24, 3.68, 3.02, 2.7, 2.7, 0.55, 0.55, 0.55, 0.55, 1.16, 1.16, 1.14, 1.14, 1.69, 1.69, 2.21, 2.33, 2.3, 2.28, 2.39, 2.39, 2.17, 2.33, 2.21, 2.86, 3.35, 4.0, 4.66, 5.34, 5.09, 5.71, 6.28, 6.79, 7.61, 7.76, 7.61, 7.07, 6.79, 6.57, 6.57, 6.57, 6.57, 6.28, 5.69, 5.69, 5.38, 5.38, 5.08, 4.75, 4.47, 4.73, 4.05, 4.08, 4.08, 3.84, 3.64, 3.64, 3.4, 4.08, 4.56, 4.16, 3.91, 3.45, 3.35, 5.15, 5.72, 5.89, 5.69, 6.07, 7.76, 7.03, 6.44, 5.1, 4.83, 4.6, 3.85, 3.19, 4.55, 8.06, 11.92, 13.67, 12.67, 10.53, 3.11, -3.07, -5.31, -2.8, 0.0, 2.8, 4.8, 5.77, 6.1, 6.21, 5.63, 5.51, 5.1, 5.11, 5.38, 3.82, 3.53, 3.39, 2.95, 2.95, 0.0, 0.0, 0.58, 0.58, 1.16, 1.14, 1.14, 1.14, 1.69, 2.37, 2.21, 2.33, 2.3, 2.28, 2.39, 2.25, 2.28, 2.3, 2.21, 2.89, 3.56, 4.03, 4.69, 5.09, 5.09, 5.71, 6.28, 7.07, 7.23, 7.23, 7.07, 6.7, 6.51, 6.51, 6.23, 6.57, 6.57, 6.28, 5.69, 5.69, 5.38, 5.1, 5.38, 4.75, 4.08, 4.08, 3.83, 3.83, 3.64, 3.42, 3.42, 3.64, 4.08, 4.73, 4.73, 4.83, 4.46, 3.68, 4.43, 5.06, 4.83, 5.49, 6.39, 7.07, 7.42, 6.87, 4.03, 3.2, 2.4, 3.11, 3.07, 1.58, 1.62, 3.15, 7.08, 9.66, 9.99, 11.84, 11.28, 2.31, -2.17, -1.4, 1.12, 3.61, 4.4, 4.39, 5.71, 6.2, 5.48, 4.75, 3.91, 3.82, 4.61, 4.17, 4.24, 3.47, 2.88, 2.88, 0.0, 0.0, 0.58, 0.54, 1.14, 1.14, 1.2, 1.14, 1.69, 1.81, 2.21, 2.33, 2.3, 2.28, 2.39, 2.25, 2.39, 2.3, 2.33, 2.37, 2.89, 3.56, 4.03, 4.45, 5.09, 5.36, 6.32, 6.79, 6.95, 6.7, 6.7, 6.51, 6.51, 6.51, 6.51, 6.23, 6.23, 5.69, 5.69, 5.38, 5.38, 5.1, 4.75, 4.83, 4.56, 4.08, 3.64, 3.42, 3.42, 3.42, 3.42, 4.08, 4.47, 4.73, 4.71, 4.73, 4.44, 4.71, 5.06, 4.95, 4.83, 5.59, 6.39, 7.44, 6.79, 5.59, 4.71, 2.51, 0.0, 0.0, 0.79, 2.44, 1.54, 0.0, 0.0, 0.82, 3.78, 6.35, 9.85, 9.51, 3.04, 1.84, 3.57, 4.13, 4.31, 4.24, 4.1, 3.78, 3.91, 3.14, 3.11, 3.11, 2.81, 4.1, 3.53, 2.76, 2.88, 2.88, 0.0, 0.0, 0.54, 0.57, 1.14, 1.2, 1.78, 1.69, 1.69, 2.37, 1.69, 1.78, 2.3, 2.17, 2.28, 2.39, 2.93, 2.28, 2.33, 2.21, 2.89, 3.37, 3.37, 3.56, 4.24, 5.09, 6.32, 6.79, 6.95, 6.7, 6.51, 6.51, 6.51, 6.51, 6.51, 6.23, 5.98, 5.98, 5.08, 5.08, 4.75, 4.47, 4.75, 4.75, 4.47, 4.83, 4.26, 3.84, 4.08, 4.47, 4.47, 4.73, 4.73, 4.73, 4.71, 4.71, 4.71, 4.73, 4.83, 4.95, 4.56, 5.3, 6.39, 6.06, 5.69, 6.01, 6.53, 4.66, 0.82, -0.76, 0.83, 4.6, 5.8, 1.52, -4.01, -3.2, 0.0, 1.52, 3.91, 6.31, 7.17, 6.48, 6.56, 6.52, 5.94, 4.88, 3.52, 2.19, 1.47, 2.12, 2.09, 1.57, 2.16, 3.17, 2.91, 2.72, 2.14, 2.14, 0.57, 0.57, 0.57, 1.14, 1.14, 1.78, 1.78, 1.69, 1.69, 1.81, 1.69, 1.69, 2.3, 2.3, 2.28, 2.28, 2.93, 2.8, 2.83, 2.86, 2.89, 3.05, 2.89, 3.35, 4.0, 5.34, 6.34, 6.79, 6.41, 6.41, 6.51, 6.7, 6.51, 6.51, 6.23, 5.65, 5.65, 5.37, 5.08, 4.75, 4.75, 4.47, 4.75, 4.75, 4.08, 4.26, 4.12, 4.08, 4.73, 4.73, 4.73, 4.73, 4.47, 4.73, 4.73, 4.73, 4.73, 4.73, 4.47, 4.56, 4.56, 4.83, 5.59, 4.95, 5.06, 4.74, 5.69, 6.69, 4.96, 2.6, 2.68, 4.83, 7.13, 4.81, -0.77, -4.11, -2.47, 0.0, 0.8, 2.37, 5.08, 6.52, 7.92, 7.8, 7.35, 6.18, 4.27, 2.08, 0.71, 0.7, 0.72, 0.72, 0.7, 1.4, 2.06, 2.09, 2.1, 2.1, 0.57, 0.57, 1.14, 1.14, 1.14, 1.69, 1.69, 1.69, 1.81, 1.69, 1.69, 1.69, 1.78, 2.3, 2.3, 2.28, 2.8, 2.93, 2.8, 3.49, 3.32, 3.52, 3.35, 3.52, 4.44, 5.72, 6.64, 6.79, 7.44, 6.41, 6.51, 6.7, 6.51, 6.23, 6.23, 5.98, 5.65, 5.37, 5.08, 4.75, 4.75, 4.75, 4.1, 4.1, 3.84, 3.64, 3.83, 4.05, 4.05, 4.32, 4.08, 4.08, 4.08, 4.08, 4.36, 4.47, 4.08, 4.08, 4.08, 4.08, 4.83, 4.83, 4.42, 4.36, 4.29, 3.22, 3.35, 4.75, 5.72, 4.66, 4.16, 2.35, 3.39, 4.3, 2.28, -1.7, -2.3, 0.0, 0.8, 1.45, 3.62, 5.02, 5.72, 5.98, 5.56, 4.99, 4.3, 2.96, 0.77, 0.0, 0.0, 0.0, 0.71, 1.43, 1.45, 2.09, 2.06, 2.06, 0.57, 0.57, 1.14, 1.14, 1.14, 1.14, 1.69, 1.69, 1.69, 1.14, 1.14, 1.69, 1.69, 1.78, 2.3, 2.3, 2.8, 3.45, 3.94, 3.94, 3.97, 3.97, 4.0, 4.44, 5.34, 5.72, 6.32, 6.52, 6.7, 7.44, 6.7, 7.07, 6.23, 6.23, 6.23, 6.23, 5.98, 5.37, 5.08, 4.75, 4.75, 4.47, 4.1, 3.84, 3.84, 3.64, 3.64, 3.64, 4.08, 4.08, 4.08, 4.08, 3.84, 4.1, 4.1, 4.1, 4.1, 3.84, 3.84, 4.08, 4.08, 4.16, 5.03, 4.29, 3.9, 3.47, 2.4, 2.4, 3.4, 4.4, 3.88, 0.8, 0.0, 0.0, 3.07, 0.77, 0.0, 0.83, 1.36, 1.45, 2.76, 3.58, 3.53, 2.81, 2.93, 3.01, 3.09, 3.06, 1.53, 0.75, 0.82, 1.45, 2.06, 2.18, 2.76, 2.33, 2.81, 2.81, 1.14, 1.14, 1.14, 1.14, 1.14, 1.14, 1.16, 1.16, 1.07, 1.14, 1.07, 1.71, 1.69, 1.69, 2.19, 2.3, 2.83, 3.49, 3.94, 4.6, 4.63, 4.63, 4.66, 5.08, 5.72, 6.01, 6.32, 6.28, 7.07, 7.07, 6.79, 6.79, 6.57, 6.23, 6.23, 5.98, 5.69, 5.37, 5.08, 4.75, 4.75, 4.1, 4.1, 3.84, 3.42, 3.42, 3.42, 3.42, 3.42, 3.42, 3.68, 3.68, 4.1, 4.1, 4.1, 4.1, 4.36, 4.47, 4.08, 4.08, 4.96, 5.03, 4.75, 4.75, 4.01, 4.01, 4.29, 3.11, 2.26, 3.7, 4.07, 2.39, 0.0, -0.76, 2.33, 4.06, 2.44, 0.85, 0.7, 1.38, 2.09, 2.12, 1.4, 1.36, 1.45, 1.79, 2.99, 3.01, 2.91, 1.47, 1.45, 1.54, 2.1, 2.1, 2.13, 2.85, 2.91, 2.91, 1.14, 1.14, 1.14, 1.14, 1.14, 1.16, 1.16, 1.16, 1.07, 1.07, 1.16, 1.71, 1.71, 1.69, 2.21, 2.83, 2.83, 3.49, 3.97, 4.63, 5.04, 5.06, 5.32, 5.08, 5.72, 6.01, 6.32, 6.57, 7.07, 6.79, 6.79, 6.57, 6.23, 6.23, 5.98, 5.69, 5.69, 5.08, 5.08, 4.75, 4.1, 4.1, 3.84, 3.42, 3.42, 3.42, 3.42, 3.42, 3.42, 3.45, 3.45, 3.68, 4.1, 4.1, 4.47, 4.75, 4.75, 4.47, 4.47, 4.73, 4.36, 4.71, 4.75, 4.75, 4.47, 3.68, 3.11, 3.0, 2.26, 2.35, 3.53, 4.54, 3.39, 0.79, 1.63, 4.68, 4.87, 2.31, 1.54, 0.81, 1.36, 1.43, 1.38, 1.41, 1.43, 2.35, 2.95, 2.95, 2.28, 1.47, 1.45, 0.74, 0.79, 0.68, 0.69, 0.72, 2.09, 2.09, 1.14, 1.14, 1.14, 1.14, 1.07, 1.16, 1.16, 1.16, 1.16, 1.16, 1.16, 1.61, 1.71, 1.71, 2.21, 2.33, 2.83, 3.49, 3.97, 4.63, 5.29, 5.7, 5.98, 5.72, 5.72, 6.34, 6.32, 6.28, 6.23, 6.23, 6.23, 6.23, 6.23, 5.98, 5.65, 5.08, 5.08, 4.75, 4.47, 4.1, 4.1, 3.42, 3.68, 3.45, 3.45, 3.42, 3.42, 3.42, 3.21, 3.45, 3.45, 3.85, 4.39, 4.75, 4.75, 4.75, 4.47, 4.47, 4.47, 4.08, 4.08, 4.1, 4.46, 3.9, 3.33, 3.2, 2.47, 1.52, 0.83, 1.65, 3.3, 4.6, 5.73, 3.11, 1.62, 3.06, 5.51, 5.48, 3.11, 2.06, 2.82, 2.82, 2.93, 2.76, 3.53, 3.53, 3.75, 2.2, 1.54, 0.72, 0.0, 0.0, 0.0, 0.0, 0.0, 0.0, 0.72, 0.72, 0.57, 0.57, 0.57, 1.14, 1.16, 1.16, 0.58, 1.16, 1.16, 1.09, 1.73, 1.61, 1.61, 1.71, 2.21, 2.83, 3.49, 3.49, 4.0, 4.66, 5.06, 5.7, 6.08, 6.35, 6.35, 6.34, 6.32, 6.28, 6.23, 5.65, 5.65, 5.65, 5.65, 5.37, 5.08, 5.08, 4.75, 4.1, 4.1, 3.68, 3.45, 3.45, 3.45, 3.2, 3.0, 3.0, 2.96, 2.96, 3.45, 3.45, 4.12, 4.12, 4.75, 4.47, 4.75, 4.75, 4.47, 4.47, 4.08, 4.08, 4.08, 4.1, 4.46, 3.33, 3.33, 2.4, 1.72, 1.72, 1.72, 2.35, 3.91, 5.52, 6.64, 5.67, 3.11, 0.84, 1.52, 3.11, 3.14, 3.53, 5.0, 6.36, 6.4, 5.55, 4.95, 4.18, 3.57, 2.98, 1.51, 0.0, 0.0, -0.74, -0.76, -0.79, -1.58, -1.44, -1.41, 0.0, 0.57, 0.57, 0.57, 0.54, 0.54, 0.58, 0.58, 1.09, 1.18, 1.18, 1.18, 1.18, 1.73, 2.23, 2.86, 3.32, 3.49, 3.94, 3.97, 4.0, 4.66, 5.72, 6.35, 6.35, 6.35, 6.34, 6.32, 6.28, 5.69, 5.65, 5.06, 5.06, 5.37, 5.08, 4.75, 4.75, 4.1, 4.1, 4.1, 3.45, 3.45, 3.45, 3.45, 3.2, 3.45, 3.0, 2.77, 2.77, 3.45, 3.45, 4.12, 4.12, 4.75, 4.47, 4.47, 4.36, 4.08, 4.08, 4.08, 4.08, 4.08, 4.1, 4.46, 3.11, 2.64, 2.26, 2.26, 3.11, 3.33, 4.16, 4.56, 5.46, 5.6, 6.35, 5.51, 0.81, -2.47, -0.77, 1.42, 4.12, 5.7, 6.36, 7.2, 6.52, 5.65, 5.08, 4.34, 3.76, 2.3, 0.71, 0.0, -0.69, -1.52, -1.54, -1.52, -2.06, -2.82, -1.41, 0.57, 0.57, 0.57, 0.57, 0.54, 0.58, 0.55, 1.18, 1.18, 1.18, 1.18, 1.18, 1.73, 2.23, 2.86, 3.32, 4.16, 4.12, 4.16, 4.0, 4.69, 5.09, 5.46, 6.35, 6.64, 6.35, 6.34, 6.32, 5.71, 5.38, 5.08, 4.75, 4.75, 4.47, 4.47, 4.47, 4.1, 4.1, 4.1, 4.1, 3.45, 3.45, 3.45, 3.22, 3.2, 3.45, 3.0, 3.45, 3.68, 3.85, 4.12, 4.12, 4.12, 4.1, 4.1, 4.1, 3.84, 4.08, 4.08, 4.08, 3.84, 4.1, 3.45, 3.2, 3.68, 3.68, 3.47, 3.11, 4.16, 4.03, 4.03, 4.12, 4.36, 6.64, 8.05, 4.68, -0.82, -3.07, 0.0, 4.37, 5.62, 5.71, 5.73, 5.81, 4.95, 5.01, 4.28, 3.8, 2.21, 1.53, 0.0, -0.73, -1.55, -2.47, -2.41, -3.07, -3.53, -2.82, 0.57, 0.57, 0.57, 0.57, 0.54, 0.58, 1.18, 1.1, 1.18, 1.09, 1.18, 1.73, 2.23, 2.37, 2.86, 3.52, 3.97, 3.94, 4.6, 4.66, 4.69, 4.71, 5.09, 5.72, 6.35, 6.35, 6.34, 6.34, 6.01, 5.71, 5.08, 4.75, 4.47, 4.47, 4.47, 4.47, 4.47, 4.47, 4.1, 4.1, 4.1, 3.45, 2.8, 2.8, 2.8, 3.4, 3.21, 3.45, 4.1, 4.1, 4.12, 4.12, 4.12, 3.85, 4.1, 4.1, 4.1, 3.84, 3.84, 3.42, 3.42, 3.68, 3.6, 3.68, 3.45, 3.68, 2.6, 3.68, 3.33, 4.03, 4.03, 3.91, 3.45, 4.72, 6.85, 9.17, 5.63, 0.73, 0.76, 4.96, 6.44, 6.51, 5.09, 5.01, 4.29, 3.61, 2.91, 2.23, 1.48, 0.73, 0.0, -0.74, -1.49, -3.21, -4.13, -3.85, -4.01, -4.01, 0.57, 0.57, 0.57, 0.57, 0.54, 1.09, 1.18, 1.18, 1.61, 1.71, 2.23, 2.89, 2.89, 2.89, 2.86, 3.52, 3.32, 3.97, 4.63, 5.06, 4.66, 4.45, 5.1, 5.72, 6.01, 6.34, 6.34, 6.34, 6.04, 5.71, 5.1, 5.08, 4.47, 4.47, 4.47, 4.47, 4.47, 4.47, 4.1, 4.1, 3.68, 3.45, 2.8, 2.8, 2.8, 2.77, 2.77, 3.45, 3.85, 3.85, 4.12, 4.12, 3.85, 3.45, 3.45, 3.68, 3.42, 3.42, 3.42, 3.42, 3.42, 3.42, 3.0, 3.68, 3.45, 3.45, 3.68, 3.45, 3.47, 4.16, 4.03, 3.27, 3.45, 3.95, 6.7, 9.2, 10.87, 8.86, 5.38, 5.38, 6.36, 7.2, 6.43, 5.58, 4.95, 3.93, 2.21, 0.76, 0.0, 0.0, 0.0, -0.75, -2.35, -4.07, -4.8, -4.6, -4.6, -4.6, 0.0, 0.0, 0.0, 0.57, 0.58, 1.09, 1.18, 1.18, 1.73, 2.73, 3.56, 4.0, 4.0, 4.0, 4.0, 3.52, 3.52, 4.0, 3.97, 5.32, 5.08, 5.09, 5.36, 5.72, 5.72, 6.34, 6.34, 6.34, 5.72, 5.72, 5.38, 5.1, 4.75, 4.47, 4.47, 4.47, 4.47, 4.1, 4.1, 3.68, 3.68, 3.45, 3.0, 2.8, 2.32, 2.49, 3.0, 3.45, 3.72, 4.12, 4.12, 4.12, 3.45, 3.45, 3.45, 3.45, 3.68, 3.42, 3.42, 3.42, 3.42, 3.42, 3.45, 3.4, 3.45, 3.45, 3.68, 3.68, 4.29, 4.16, 3.4, 2.4, 3.15, 4.92, 5.63, 7.01, 9.67, 11.02, 8.99, 7.36, 7.54, 7.76, 7.71, 7.31, 6.52, 5.08, 3.01, 0.74, 0.0, -0.72, -0.75, -1.47, -2.9, -5.64, -5.64, -5.38, -5.38, -5.38, 0.0, 0.0, 0.0, 0.0, 0.58, 0.55, 0.59, 1.18, 1.73, 2.89, 4.24, 4.66, 5.32, 5.06, 4.42, 4.42, 4.42, 4.66, 4.66, 5.08, 5.34, 5.72, 5.72, 5.72, 5.72, 6.04, 6.34, 6.01, 5.72, 5.72, 5.1, 5.1, 4.47, 4.47, 4.47, 4.1, 4.1, 4.1, 3.45, 3.45, 3.45, 3.0, 3.0, 2.8, 2.8, 2.8, 2.8, 3.47, 3.47, 3.47, 3.47, 3.47, 3.45, 3.45, 3.45, 3.45, 3.45, 3.45, 3.45, 3.42, 2.77, 3.0, 3.0, 2.8, 3.4, 3.68, 3.68, 3.47, 3.9, 3.33, 2.4, 3.2, 3.91, 5.06, 5.76, 5.51, 6.52, 7.82, 9.66, 9.4, 8.56, 8.68, 8.65, 8.78, 7.91, 6.44, 4.45, 2.21, 0.0, -0.74, -2.28, -2.47, -3.11, -3.11, -3.47, -3.47, -3.47, -3.47, 0.0, 0.0, 0.0, 0.0, 0.0, 0.58, 0.55, 1.09, 2.4, 3.6, 4.69, 5.08, 5.32, 5.06, 5.06, 5.06, 5.06, 5.06, 5.08, 4.66, 5.36, 5.72, 6.01, 5.72, 5.72, 5.72, 5.72, 5.72, 5.72, 5.72, 5.1, 5.38, 4.73, 4.47, 4.1, 3.45, 3.45, 3.45, 3.0, 3.0, 3.0, 3.0, 3.0, 2.8, 2.8, 2.8, 2.8, 3.47, 3.47, 3.47, 3.47, 3.47, 3.22, 3.45, 3.45, 3.0, 3.0, 3.0, 3.0, 3.0, 3.0, 2.8, 2.8, 3.0, 3.04, 3.68, 3.45, 3.22, 3.33, 3.33, 3.2, 4.03, 5.1, 4.83, 4.71, 4.8, 4.75, 6.31, 7.93, 9.31, 9.31, 8.86, 9.42, 9.41, 8.89, 7.22, 5.13, 3.57, 0.74, 0.0, -1.19, 0.0, 0.0, 0.85, 0.6, 1.6, 1.6, 1.6, 0.0, 0.0, 0.0, 0.0, 0.57, 0.57, 1.16, 1.71, 2.89, 3.81, 4.45, 4.44, 5.08, 5.32, 5.32, 5.32, 5.32, 5.32, 5.32, 5.08, 5.1, 5.72, 5.72, 5.72, 5.72, 5.72, 5.72, 5.36, 5.36, 5.1, 5.1, 4.46, 4.73, 4.08, 3.42, 3.45, 3.0, 3.0, 3.0, 3.0, 3.0, 3.0, 3.0, 2.8, 2.8, 2.8, 2.8, 3.04, 3.04, 3.47, 3.47, 3.47, 3.47, 3.0, 3.0, 3.0, 3.0, 3.0, 3.0, 3.0, 2.8, 2.32, 2.32, 2.8, 3.04, 3.68, 2.8, 2.8, 3.45, 3.9, 4.16, 4.83, 4.71, 4.2, 4.07, 3.95, 4.68, 6.21, 7.25, 8.18, 8.56, 8.36, 9.54, 10.17, 9.46, 7.22, 4.29, 2.89, 2.31, 1.6, 2.53, 3.22, 2.86, 4.4, 4.4, 5.05, 5.05, 5.05, 0.0, 0.0, 0.0, 0.56, 0.56, 1.14, 1.14, 2.21, 3.37, 4.03, 4.45, 4.69, 4.44, 4.66, 5.08, 5.08, 5.08, 5.32, 5.32, 5.08, 5.09, 5.1, 5.44, 5.72, 5.36, 5.1, 5.1, 5.1, 5.1, 4.71, 4.46, 4.46, 3.83, 3.64, 3.42, 2.77, 3.45, 3.45, 3.45, 3.45, 3.0, 3.0, 3.0, 2.8, 2.8, 2.8, 2.8, 2.8, 3.04, 3.04, 3.04, 3.04, 3.04, 2.8, 3.0, 3.0, 3.0, 3.0, 3.0, 2.8, 2.32, 2.36, 2.36, 2.54, 3.04, 3.4, 3.45, 3.76, 4.02, 3.11, 3.2, 4.03, 3.8, 4.0, 3.88, 4.71, 4.8, 6.33, 7.12, 7.63, 7.63, 7.9, 9.49, 11.08, 10.14, 7.14, 4.35, 2.81, 5.13, 6.35, 5.77, 4.81, 4.46, 5.82, 6.07, 6.25, 6.25, 6.25, 0.0, 0.0, 0.0, 0.56, 0.56, 1.12, 1.78, 2.86, 3.56, 4.03, 4.03, 4.03, 4.69, 4.69, 4.44, 4.44, 4.66, 4.66, 5.08, 5.08, 5.09, 5.1, 5.1, 5.1, 5.1, 4.71, 4.71, 4.46, 4.46, 4.46, 4.05, 4.05, 3.4, 3.4, 3.64, 3.42, 3.68, 3.45, 3.45, 3.45, 3.45, 3.0, 3.0, 2.8, 2.8, 3.0, 2.8, 2.8, 2.82, 2.82, 3.04, 3.04, 3.04, 2.8, 3.0, 2.8, 2.8, 2.8, 2.8, 2.32, 2.16, 2.36, 2.36, 2.36, 3.04, 3.33, 3.9, 3.9, 3.11, 2.47, 1.63, 1.72, 3.27, 3.8, 4.83, 5.52, 5.41, 6.2, 7.24, 8.01, 8.01, 7.9, 9.4, 11.19, 9.37, 6.43, 3.59, 5.09, 7.9, 9.2, 8.22, 6.32, 5.82, 7.03, 6.07, 6.07, 6.07, 6.07, 0.0, 0.0, 0.56, 0.56, 1.11, 1.75, 2.3, 2.86, 3.56, 4.03, 4.03, 4.03, 4.03, 4.03, 4.24, 4.69, 4.44, 4.44, 4.44, 5.09, 5.09, 5.1, 4.46, 4.46, 4.46, 4.46, 4.46, 4.05, 4.05, 4.05, 4.05, 4.05, 3.6, 3.4, 4.08, 3.84, 4.1, 3.45, 3.45, 3.45, 3.45, 3.45, 3.45, 3.0, 3.0, 2.77, 2.29, 2.8, 2.82, 2.82, 2.82, 2.82, 3.04, 2.32, 2.32, 2.8, 2.8, 2.32, 2.32, 2.32, 2.16, 1.84, 1.84, 2.36, 2.36, 3.33, 3.9, 4.16, 3.2, 2.35, 2.64, 2.47, 1.6, 3.27, 4.83, 5.52, 5.76, 6.31, 6.57, 7.24, 7.24, 7.24, 7.73, 7.58, 7.17, 4.17, 4.17, 5.09, 7.22, 8.53, 8.49, 7.9, 7.95, 8.05, 6.7, 6.08, 6.08, 6.08, 0.0, 0.59, 0.55, 1.1, 1.16, 1.65, 2.3, 2.86, 3.56, 4.03, 4.03, 4.03, 4.03, 4.03, 4.03, 4.03, 4.03, 4.69, 4.69, 4.69, 4.45, 4.71, 4.46, 4.46, 4.05, 4.05, 4.05, 4.05, 4.05, 4.05, 4.05, 4.05, 4.05, 3.83, 3.64, 3.42, 3.68, 3.45, 3.45, 3.45, 3.45, 3.45, 3.45, 3.0, 2.77, 2.29, 2.77, 2.8, 2.82, 2.82, 2.82, 2.82, 2.36, 2.32, 2.32, 2.32, 2.32, 2.32, 2.32, 2.32, 2.32, 1.84, 1.84, 2.36, 2.32, 3.04, 3.33, 3.9, 4.03, 4.03, 4.03, 3.55, 3.47, 3.22, 3.91, 4.83, 5.52, 5.52, 5.76, 5.63, 6.45, 6.45, 6.2, 4.55, 3.72, 3.63, 3.58, 4.31, 4.94, 5.64, 7.59, 8.87, 8.68, 8.3, 6.7, 5.37, 5.37, 5.37, 0.55, 0.55, 1.15, 1.15, 1.73, 1.65, 2.3, 3.35, 3.56, 4.03, 4.03, 3.56, 3.56, 3.56, 4.03, 4.03, 4.03, 4.03, 4.03, 4.45, 4.71, 4.71, 4.05, 4.05, 4.05, 4.05, 4.05, 4.05, 3.6, 3.4, 3.6, 3.6, 3.6, 3.4, 3.42, 3.42, 3.45, 3.45, 3.45, 3.45, 3.45, 3.0, 3.0, 2.77, 2.29, 2.29, 3.0, 3.04, 3.04, 2.82, 2.82, 2.36, 2.36, 2.32, 2.32, 2.32, 2.32, 2.16, 2.32, 2.32, 2.32, 2.32, 2.16, 2.32, 2.8, 3.04, 3.11, 3.47, 4.16, 4.03, 4.03, 4.95, 4.95, 5.06, 4.16, 5.49, 5.64, 5.52, 4.92, 4.92, 5.76, 6.45, 5.72, 3.16, 4.35, 3.63, 2.09, 2.9, 3.84, 5.09, 7.95, 9.57, 8.68, 7.69, 6.01, 5.59, 5.59, 5.59, 0.58, 0.58, 1.15, 1.15, 1.73, 2.17, 2.83, 3.52, 3.35, 3.35, 3.35, 3.56, 3.37, 3.37, 3.37, 3.56, 3.37, 3.81, 4.03, 4.03, 4.05, 4.05, 4.05, 3.37, 3.6, 3.6, 3.6, 3.6, 3.6, 3.4, 3.4, 3.4, 3.4, 3.4, 3.42, 3.42, 3.45, 3.45, 3.45, 3.0, 3.0, 3.0, 2.77, 2.29, 2.29, 3.0, 2.8, 3.04, 3.04, 3.04, 3.04, 2.36, 2.16, 2.16, 2.32, 2.16, 2.16, 2.16, 2.32, 2.32, 2.32, 2.32, 2.32, 2.8, 2.8, 3.47, 3.04, 3.08, 3.33, 3.2, 3.33, 4.16, 4.95, 4.95, 4.95, 5.1, 5.76, 5.52, 5.52, 5.64, 5.9, 6.45, 5.51, 6.31, 6.7, 4.28, 1.36, 2.12, 4.47, 7.28, 9.45, 10.19, 8.27, 7.64, 6.24, 4.71, 4.71, 4.71, 0.58, 0.58, 1.15, 1.16, 1.73, 2.3, 2.83, 3.52, 3.52, 3.52, 3.35, 3.05, 3.37, 3.37, 3.37, 3.37, 3.37, 3.37, 3.37, 3.6, 4.05, 3.37, 3.37, 3.37, 3.37, 3.37, 3.4, 3.4, 3.4, 3.4, 2.92, 2.92, 2.92, 2.92, 2.96, 2.77, 3.0, 3.0, 2.8, 3.0, 3.0, 2.29, 2.29, 2.29, 2.8, 2.8, 3.04, 3.04, 3.04, 3.04, 3.04, 2.36, 2.16, 1.67, 1.67, 1.67, 1.67, 1.8, 1.8, 2.32, 2.32, 2.32, 2.32, 2.8, 3.45, 3.45, 3.47, 3.04, 2.64, 2.64, 3.11, 3.47, 3.72, 4.16, 4.16, 4.16, 5.59, 5.64, 6.31, 6.31, 6.42, 6.57, 7.2, 8.8, 9.23, 6.31, 2.47, 2.53, 5.77, 8.24, 9.14, 9.84, 8.53, 7.08, 6.14, 4.71, 4.71, 4.71, 0.58, 0.58, 1.1, 1.73, 1.65, 2.3, 2.83, 3.52, 3.52, 3.32, 2.86, 2.86, 2.89, 2.89, 3.37, 3.37, 3.37, 3.37, 3.37, 3.6, 3.37, 3.37, 3.37, 2.89, 2.89, 2.89, 2.73, 2.92, 2.92, 2.92, 2.92, 2.92, 2.92, 2.75, 2.96, 2.77, 3.0, 2.8, 2.8, 2.49, 2.29, 2.29, 3.0, 3.0, 2.8, 2.8, 3.04, 2.82, 3.04, 3.04, 2.32, 2.16, 1.67, 1.67, 1.67, 1.67, 1.8, 1.8, 1.8, 1.8, 1.8, 2.32, 2.32, 2.8, 2.8, 2.8, 2.8, 3.04, 2.54, 3.33, 3.11, 2.8, 3.47, 3.72, 3.9, 3.33, 3.33, 4.96, 5.64, 6.31, 6.7, 6.21, 7.01, 7.8, 8.34, 6.54, 4.2, 5.31, 7.12, 7.98, 8.18, 8.57, 8.49, 6.97, 6.05, 5.38, 5.38, 5.38, 0.55, 0.55, 1.16, 1.65, 2.3, 2.83, 3.01, 3.32, 3.32, 2.83, 2.83, 2.86, 2.89, 2.89, 2.89, 2.89, 2.89, 2.89, 2.89, 2.73, 2.89, 2.89, 2.89, 2.89, 2.89, 2.89, 2.89, 2.73, 2.73, 2.23, 2.23, 2.4, 2.26, 2.75, 2.96, 2.77, 3.0, 2.49, 2.29, 2.29, 2.77, 3.0, 3.0, 3.0, 2.8, 2.8, 3.04, 2.82, 2.36, 2.36, 2.32, 2.16, 1.67, 1.67, 1.67, 1.8, 1.8, 1.8, 1.8, 1.8, 1.8, 2.32, 2.32, 2.8, 2.8, 2.8, 2.8, 2.8, 2.82, 2.47, 2.47, 3.47, 3.47, 4.01, 4.16, 3.55, 3.11, 3.4, 4.96, 5.64, 4.6, 4.87, 4.55, 4.62, 4.82, 5.72, 6.6, 7.61, 7.85, 7.28, 6.35, 7.27, 7.09, 7.24, 5.76, 5.41, 5.41, 5.41, 1.16, 1.16, 1.16, 1.65, 2.3, 2.83, 3.52, 3.32, 3.49, 2.97, 2.83, 2.86, 2.37, 2.73, 2.73, 2.89, 2.89, 2.89, 2.89, 2.73, 2.73, 2.89, 2.89, 2.89, 2.89, 2.89, 2.89, 2.89, 2.37, 2.23, 2.23, 2.4, 2.26, 2.75, 2.96, 2.77, 2.29, 2.29, 2.77, 2.77, 3.0, 3.0, 3.0, 3.0, 3.0, 2.8, 2.8, 2.32, 2.32, 2.32, 2.32, 1.8, 1.67, 1.8, 1.8, 1.8, 1.8, 1.8, 1.8, 1.8, 1.67, 1.8, 2.32, 2.8, 2.8, 2.8, 2.32, 2.32, 2.36, 2.47, 2.47, 3.47, 3.47, 3.47, 3.9, 4.16, 3.55, 3.33, 4.03, 3.88, 3.11, 2.51, 2.45, 2.3, 3.16, 5.58, 7.08, 8.49, 7.59, 6.64, 5.69, 5.94, 5.7, 6.45, 5.63, 4.8, 4.8, 4.8, 1.16, 1.16, 1.73, 2.17, 2.3, 2.83, 3.32, 3.49, 3.49, 3.3, 2.97, 2.83, 2.86, 2.73, 2.73, 2.89, 2.89, 2.89, 2.89, 2.73, 2.73, 2.89, 2.89, 2.89, 2.89, 2.37, 2.37, 2.37, 2.37, 2.37, 2.23, 2.4, 2.92, 2.75, 2.96, 2.96, 2.77, 2.77, 2.77, 2.77, 2.77, 2.77, 2.77, 2.77, 2.77, 3.0, 2.8, 2.32, 2.32, 2.32, 2.32, 1.8, 1.67, 1.67, 1.67, 1.14, 1.14, 1.14, 1.14, 1.14, 1.67, 1.8, 2.32, 2.32, 2.32, 2.32, 2.32, 2.32, 2.36, 1.7, 2.4, 2.6, 3.22, 2.6, 3.47, 3.33, 3.2, 2.51, 0.84, 2.47, 2.39, 2.41, 2.37, 3.1, 3.2, 5.6, 7.2, 7.73, 7.09, 6.51, 5.21, 5.21, 5.04, 5.41, 4.8, 4.68, 4.68, 4.68, 1.73, 1.73, 1.73, 2.28, 2.83, 3.32, 3.49, 3.49, 3.49, 3.3, 3.3, 3.49, 3.52, 3.37, 2.89, 2.89, 2.89, 2.89, 2.89, 2.23, 2.23, 2.37, 2.37, 2.21, 2.37, 2.37, 2.37, 2.37, 2.37, 2.37, 2.89, 2.73, 2.92, 2.92, 2.75, 2.96, 2.96, 2.96, 3.21, 3.42, 2.96, 2.96, 2.96, 2.96, 2.77, 2.77, 3.0, 2.32, 2.32, 2.32, 1.8, 1.8, 1.14, 1.14, 1.14, 1.14, 0.58, 0.58, 0.58, 1.14, 1.67, 1.8, 2.32, 2.32, 2.49, 2.49, 2.32, 2.32, 2.36, 1.7, 1.88, 2.6, 2.4, 2.32, 2.6, 1.72, 1.63, 1.55, 1.65, 1.58, 2.28, 2.41, 3.11, 4.04, 4.75, 6.26, 8.03, 7.25, 7.02, 6.36, 5.52, 4.37, 4.28, 4.4, 4.23, 4.15, 4.15, 4.15, 1.73, 1.73, 2.28, 2.8, 2.97, 3.49, 3.49, 3.49, 3.49, 3.49, 3.49, 3.97, 4.0, 3.35, 3.37, 2.89, 2.89, 2.37, 2.37, 2.37, 2.37, 2.37, 2.21, 2.21, 2.21, 2.37, 2.37, 2.37, 2.37, 2.89, 2.89, 2.89, 2.92, 2.92, 2.92, 2.75, 2.96, 2.96, 2.96, 2.96, 2.96, 2.96, 2.96, 2.96, 2.96, 2.96, 2.29, 2.29, 2.29, 1.65, 1.23, 1.23, 1.14, 0.58, 0.58, 0.58, 0.58, 0.58, 0.58, 1.14, 1.8, 1.8, 2.32, 2.29, 2.29, 2.29, 2.49, 2.32, 2.36, 1.7, 1.88, 1.88, 1.73, 2.49, 1.6, 1.72, 1.63, 1.73, 2.4, 2.54, 2.35, 3.16, 3.82, 4.71, 5.51, 7.8, 8.51, 8.61, 8.18, 8.01, 6.57, 4.83, 4.07, 3.61, 3.69, 3.16, 3.16, 3.16, 1.73, 1.73, 2.28, 2.8, 2.97, 3.49, 3.49, 3.49, 3.49, 3.49, 3.49, 3.97, 4.0, 3.35, 3.37, 2.89, 2.89, 2.37, 2.37, 2.37, 2.37, 2.37, 2.21, 2.21, 2.21, 2.37, 2.37, 2.37, 2.37, 2.89, 2.89, 2.89, 2.92, 2.92, 2.92, 2.75, 2.96, 2.96, 2.96, 2.96, 2.96, 2.96, 2.96, 2.96, 2.96, 2.96, 2.29, 2.29, 2.29, 1.65, 1.23, 1.23, 1.14, 0.58, 0.58, 0.58, 0.58, 0.58, 0.58, 1.14, 1.8, 1.8, 2.32, 2.29, 2.29, 2.29, 2.49, 2.32, 2.36, 1.7, 1.88, 1.88, 1.73, 2.49, 1.6, 1.72, 1.63, 1.73, 2.4, 2.54, 2.35, 3.25, 3.91, 4.81, 6.28, 7.0, 9.42, 10.05, 9.49, 8.29, 7.63, 6.57, 5.64, 4.2, 3.21, 2.39, 2.39, 2.39]}]